Wetterdaten: Donnerstag, 26.03.2026
Datum Zeit Temp. Aussen Temp. o. S. Temp +5cm Feuchte Auss Luftdruck Regen Sonnenschein Solar Windböen Empfang
26.03.2026 00:00 4,1 °C 3,9 °C 0,6 °C 90 % 1010,0 hPa 0,0 l/m² 0 min 0 W/m² 16,1 km/h (3 Bft) 100,00 %
26.03.2026 00:05 4,2 °C 3,9 °C 0,6 °C 90 % 1010,1 hPa 0,0 l/m² 0 min 0 W/m² 19,3 km/h (3 Bft) 100,00 %
26.03.2026 00:10 4,2 °C 3,9 °C 0,6 °C 90 % 1010,2 hPa 0,0 l/m² 0 min 0 W/m² 19,3 km/h (3 Bft) 97,37 %
26.03.2026 00:15 4,2 °C 3,9 °C 0,6 °C 90 % 1010,1 hPa 0,0 l/m² 0 min 0 W/m² 29,0 km/h (5 Bft) 97,37 %
26.03.2026 00:20 4,2 °C 3,9 °C 0,6 °C 89 % 1010,3 hPa 0,0 l/m² 0 min 0 W/m² 12,9 km/h (3 Bft) 96,49 %
26.03.2026 00:25 4,2 °C 3,9 °C 0,6 °C 89 % 1010,3 hPa 0,0 l/m² 0 min 0 W/m² 12,9 km/h (3 Bft) 98,25 %
26.03.2026 00:30 4,3 °C 3,9 °C 0,6 °C 89 % 1010,4 hPa 0,0 l/m² 0 min 0 W/m² 9,7 km/h (2 Bft) 100,00 %
26.03.2026 00:35 4,2 °C 3,9 °C 0,6 °C 89 % 1010,5 hPa 0,0 l/m² 0 min 0 W/m² 16,1 km/h (3 Bft) 100,00 %
26.03.2026 00:40 4,2 °C 3,9 °C 0,6 °C 89 % 1010,6 hPa 0,0 l/m² 0 min 0 W/m² 12,9 km/h (3 Bft) 99,12 %
26.03.2026 00:45 4,2 °C 3,3 °C 0,6 °C 89 % 1010,6 hPa 0,0 l/m² 0 min 0 W/m² 9,7 km/h (2 Bft) 100,00 %
26.03.2026 00:50 4,2 °C 3,3 °C 0,6 °C 89 % 1010,7 hPa 0,0 l/m² 0 min 0 W/m² 12,9 km/h (3 Bft) 100,00 %
26.03.2026 00:55 4,2 °C 3,3 °C 0,6 °C 89 % 1010,8 hPa 0,0 l/m² 0 min 0 W/m² 12,9 km/h (3 Bft) 100,00 %
26.03.2026 01:00 4,1 °C 3,3 °C 0,0 °C 89 % 1010,8 hPa 0,0 l/m² 0 min 0 W/m² 12,9 km/h (3 Bft) 100,00 %
26.03.2026 01:05 4,1 °C 3,3 °C 0,0 °C 89 % 1010,8 hPa 0,0 l/m² 0 min 0 W/m² 16,1 km/h (3 Bft) 100,00 %
26.03.2026 01:10 4,0 °C 3,3 °C 0,0 °C 89 % 1010,9 hPa 0,0 l/m² 0 min 0 W/m² 12,9 km/h (3 Bft) 100,00 %
26.03.2026 01:15 4,0 °C 3,3 °C 0,0 °C 89 % 1010,8 hPa 0,0 l/m² 0 min 0 W/m² 12,9 km/h (3 Bft) 100,00 %
26.03.2026 01:20 3,9 °C 3,3 °C 0,0 °C 89 % 1010,9 hPa 0,0 l/m² 0 min 0 W/m² 6,4 km/h (2 Bft) 100,00 %
26.03.2026 01:25 3,9 °C 3,3 °C 0,0 °C 89 % 1011,0 hPa 0,0 l/m² 0 min 0 W/m² 6,4 km/h (2 Bft) 100,00 %
26.03.2026 01:30 3,9 °C 3,3 °C 0,0 °C 90 % 1011,2 hPa 0,0 l/m² 0 min 0 W/m² 9,7 km/h (2 Bft) 100,00 %
26.03.2026 01:35 3,9 °C 3,3 °C 0,0 °C 90 % 1011,2 hPa 0,0 l/m² 0 min 0 W/m² 9,7 km/h (2 Bft) 100,00 %
26.03.2026 01:40 3,8 °C 3,3 °C 0,0 °C 90 % 1011,2 hPa 0,0 l/m² 0 min 0 W/m² 9,7 km/h (2 Bft) 100,00 %
26.03.2026 01:45 3,8 °C 3,3 °C 0,0 °C 90 % 1011,3 hPa 0,0 l/m² 0 min 0 W/m² 16,1 km/h (3 Bft) 98,25 %
26.03.2026 01:50 3,7 °C 3,3 °C 0,0 °C 90 % 1011,3 hPa 0,0 l/m² 0 min 0 W/m² 16,1 km/h (3 Bft) 100,00 %
26.03.2026 01:55 3,7 °C 2,8 °C 0,0 °C 90 % 1011,4 hPa 0,0 l/m² 0 min 0 W/m² 12,9 km/h (3 Bft) 97,37 %
26.03.2026 02:00 3,6 °C 2,8 °C 0,0 °C 90 % 1011,4 hPa 0,0 l/m² 0 min 0 W/m² 12,9 km/h (3 Bft) 98,25 %
26.03.2026 02:05 3,6 °C 2,8 °C 0,0 °C 90 % 1011,4 hPa 0,0 l/m² 0 min 0 W/m² 12,9 km/h (3 Bft) 97,37 %
26.03.2026 02:10 3,6 °C 2,8 °C 0,0 °C 90 % 1011,5 hPa 0,0 l/m² 0 min 0 W/m² 12,9 km/h (3 Bft) 96,49 %
26.03.2026 02:15 3,6 °C 2,8 °C 0,0 °C 90 % 1011,5 hPa 0,0 l/m² 0 min 0 W/m² 12,9 km/h (3 Bft) 100,00 %
26.03.2026 02:20 3,6 °C 2,8 °C -0,6 °C 90 % 1011,5 hPa 0,0 l/m² 0 min 0 W/m² 9,7 km/h (2 Bft) 100,00 %
26.03.2026 02:25 3,6 °C 2,8 °C -0,6 °C 91 % 1011,5 hPa 0,0 l/m² 0 min 0 W/m² 6,4 km/h (2 Bft) 100,00 %
26.03.2026 02:30 3,5 °C 2,8 °C -0,6 °C 91 % 1011,5 hPa 0,0 l/m² 0 min 0 W/m² 12,9 km/h (3 Bft) 100,00 %
26.03.2026 02:35 3,4 °C 2,8 °C -0,6 °C 91 % 1011,6 hPa 0,0 l/m² 0 min 0 W/m² 9,7 km/h (2 Bft) 100,00 %
26.03.2026 02:40 3,4 °C 2,8 °C -0,6 °C 91 % 1011,7 hPa 0,0 l/m² 0 min 0 W/m² 12,9 km/h (3 Bft) 100,00 %
26.03.2026 02:45 3,4 °C 2,8 °C -0,6 °C 92 % 1011,6 hPa 0,0 l/m² 0 min 0 W/m² 9,7 km/h (2 Bft) 100,00 %
26.03.2026 02:50 3,3 °C 2,8 °C -0,6 °C 92 % 1011,8 hPa 0,0 l/m² 0 min 0 W/m² 6,4 km/h (2 Bft) 100,00 %
26.03.2026 02:55 3,3 °C 2,8 °C -0,6 °C 92 % 1011,8 hPa 0,0 l/m² 0 min 0 W/m² 9,7 km/h (2 Bft) 100,00 %
26.03.2026 03:00 3,3 °C 2,8 °C -0,6 °C 92 % 1011,8 hPa 0,0 l/m² 0 min 0 W/m² 9,7 km/h (2 Bft) 100,00 %
26.03.2026 03:05 3,3 °C 2,8 °C -0,6 °C 92 % 1011,9 hPa 0,0 l/m² 0 min 0 W/m² 12,9 km/h (3 Bft) 100,00 %
26.03.2026 03:10 3,3 °C 2,8 °C -0,6 °C 92 % 1012,0 hPa 0,0 l/m² 0 min 0 W/m² 16,1 km/h (3 Bft) 100,00 %
26.03.2026 03:15 3,2 °C 2,8 °C -0,6 °C 92 % 1012,1 hPa 0,0 l/m² 0 min 0 W/m² 12,9 km/h (3 Bft) 100,00 %
26.03.2026 03:20 3,2 °C 2,8 °C -0,6 °C 92 % 1012,1 hPa 0,0 l/m² 0 min 0 W/m² 9,7 km/h (2 Bft) 100,00 %
26.03.2026 03:25 3,2 °C 2,8 °C -0,6 °C 92 % 1012,1 hPa 0,0 l/m² 0 min 0 W/m² 16,1 km/h (3 Bft) 100,00 %
26.03.2026 03:30 3,2 °C 2,8 °C -0,6 °C 92 % 1012,1 hPa 0,0 l/m² 0 min 0 W/m² 16,1 km/h (3 Bft) 100,00 %
26.03.2026 03:35 3,3 °C 2,8 °C -0,6 °C 93 % 1012,2 hPa 0,0 l/m² 0 min 0 W/m² 12,9 km/h (3 Bft) 98,25 %
26.03.2026 03:40 3,3 °C 2,8 °C -0,6 °C 93 % 1012,3 hPa 0,0 l/m² 0 min 0 W/m² 12,9 km/h (3 Bft) 99,12 %
26.03.2026 03:45 3,2 °C 2,8 °C -0,6 °C 93 % 1012,3 hPa 0,0 l/m² 0 min 0 W/m² 12,9 km/h (3 Bft) 97,37 %
26.03.2026 03:50 3,2 °C 2,8 °C -0,6 °C 93 % 1012,2 hPa 0,0 l/m² 0 min 0 W/m² 12,9 km/h (3 Bft) 96,49 %
26.03.2026 03:55 3,1 °C 2,2 °C -0,6 °C 93 % 1012,3 hPa 0,0 l/m² 0 min 0 W/m² 12,9 km/h (3 Bft) 82,46 %
26.03.2026 04:00 2,9 °C 2,2 °C -1,1 °C 92 % 1012,3 hPa 0,0 l/m² 0 min 0 W/m² 12,9 km/h (3 Bft) 97,37 %
26.03.2026 04:05 2,8 °C 2,2 °C -1,1 °C 92 % 1012,3 hPa 0,0 l/m² 0 min 0 W/m² 19,3 km/h (3 Bft) 97,37 %
26.03.2026 04:10 2,8 °C 2,2 °C -1,1 °C 93 % 1012,3 hPa 0,0 l/m² 0 min 0 W/m² 9,7 km/h (2 Bft) 97,37 %
26.03.2026 04:15 2,7 °C 1,7 °C -1,1 °C 93 % 1012,3 hPa 0,0 l/m² 0 min 0 W/m² 6,4 km/h (2 Bft) 98,25 %
26.03.2026 04:20 2,6 °C 1,7 °C -1,1 °C 92 % 1012,4 hPa 0,0 l/m² 0 min 0 W/m² 9,7 km/h (2 Bft) 97,37 %
26.03.2026 04:25 2,6 °C 1,7 °C -1,1 °C 93 % 1012,5 hPa 0,0 l/m² 0 min 0 W/m² 9,7 km/h (2 Bft) 100,00 %
26.03.2026 04:30 2,5 °C 1,7 °C -1,1 °C 93 % 1012,6 hPa 0,0 l/m² 0 min 0 W/m² 9,7 km/h (2 Bft) 97,37 %
26.03.2026 04:35 2,4 °C 1,7 °C -1,1 °C 93 % 1012,5 hPa 0,0 l/m² 0 min 0 W/m² 9,7 km/h (2 Bft) 99,12 %
26.03.2026 04:40 2,4 °C 1,7 °C -1,1 °C 93 % 1012,5 hPa 0,0 l/m² 0 min 0 W/m² 6,4 km/h (2 Bft) 100,00 %
26.03.2026 04:45 2,4 °C 1,7 °C -1,1 °C 93 % 1012,6 hPa 0,0 l/m² 0 min 0 W/m² 9,7 km/h (2 Bft) 100,00 %
26.03.2026 04:50 2,3 °C 1,7 °C -1,7 °C 93 % 1012,7 hPa 0,0 l/m² 0 min 0 W/m² 6,4 km/h (2 Bft) 100,00 %
26.03.2026 04:55 2,3 °C 1,7 °C -1,7 °C 93 % 1012,7 hPa 0,0 l/m² 0 min 0 W/m² 9,7 km/h (2 Bft) 100,00 %
26.03.2026 05:00 2,3 °C 1,7 °C -1,1 °C 93 % 1012,8 hPa 0,0 l/m² 0 min 0 W/m² 6,4 km/h (2 Bft) 100,00 %
26.03.2026 05:05 2,3 °C 1,7 °C -1,7 °C 93 % 1012,8 hPa 0,0 l/m² 0 min 0 W/m² 12,9 km/h (3 Bft) 100,00 %
26.03.2026 05:10 2,3 °C 1,7 °C -1,7 °C 93 % 1012,8 hPa 0,0 l/m² 0 min 0 W/m² 9,7 km/h (2 Bft) 99,12 %
26.03.2026 05:15 2,2 °C 1,7 °C -1,7 °C 93 % 1012,9 hPa 0,0 l/m² 0 min 0 W/m² 6,4 km/h (2 Bft) 99,12 %
26.03.2026 05:20 2,2 °C 1,7 °C -1,7 °C 93 % 1012,9 hPa 0,0 l/m² 0 min 0 W/m² 12,9 km/h (3 Bft) 100,00 %
26.03.2026 05:25 2,2 °C 1,7 °C -1,7 °C 93 % 1012,9 hPa 0,0 l/m² 0 min 0 W/m² 6,4 km/h (2 Bft) 100,00 %
26.03.2026 05:30 2,2 °C 1,7 °C -1,7 °C 93 % 1013,0 hPa 0,0 l/m² 0 min 0 W/m² 6,4 km/h (2 Bft) 100,00 %
26.03.2026 05:35 2,2 °C 1,7 °C -1,7 °C 93 % 1013,1 hPa 0,0 l/m² 0 min 0 W/m² 6,4 km/h (2 Bft) 100,00 %
26.03.2026 05:40 2,1 °C 1,1 °C -1,7 °C 93 % 1013,2 hPa 0,0 l/m² 0 min 0 W/m² 9,7 km/h (2 Bft) 100,00 %
26.03.2026 05:45 2,1 °C 1,1 °C -1,7 °C 93 % 1013,2 hPa 0,0 l/m² 0 min 0 W/m² 6,4 km/h (2 Bft) 100,00 %
26.03.2026 05:50 2,1 °C 1,1 °C -1,7 °C 94 % 1013,3 hPa 0,0 l/m² 0 min 0 W/m² 6,4 km/h (2 Bft) 100,00 %
26.03.2026 05:55 2,0 °C 1,1 °C -1,7 °C 94 % 1013,3 hPa 0,0 l/m² 0 min 0 W/m² 12,9 km/h (3 Bft) 100,00 %
26.03.2026 06:00 1,9 °C 1,1 °C -1,7 °C 94 % 1013,4 hPa 0,0 l/m² 0 min 0 W/m² 12,9 km/h (3 Bft) 100,00 %
26.03.2026 06:05 1,9 °C 1,1 °C -1,7 °C 94 % 1013,4 hPa 0,0 l/m² 0 min 0 W/m² 9,7 km/h (2 Bft) 100,00 %
26.03.2026 06:10 1,9 °C 1,1 °C -1,7 °C 93 % 1013,5 hPa 0,0 l/m² 0 min 0 W/m² 6,4 km/h (2 Bft) 100,00 %
26.03.2026 06:15 1,9 °C 1,1 °C -1,7 °C 93 % 1013,6 hPa 0,0 l/m² 0 min 0 W/m² 12,9 km/h (3 Bft) 100,00 %
26.03.2026 06:20 1,9 °C 1,1 °C -1,7 °C 93 % 1013,7 hPa 0,0 l/m² 0 min 0 W/m² 12,9 km/h (3 Bft) 100,00 %
26.03.2026 06:25 1,9 °C 1,1 °C -1,7 °C 93 % 1013,7 hPa 0,0 l/m² 0 min 0 W/m² 9,7 km/h (2 Bft) 100,00 %
26.03.2026 06:30 1,9 °C 1,1 °C -1,7 °C 93 % 1013,9 hPa 0,0 l/m² 0 min 3 W/m² 9,7 km/h (2 Bft) 100,00 %
26.03.2026 06:35 1,9 °C 1,1 °C -1,7 °C 93 % 1013,8 hPa 0,0 l/m² 0 min 6 W/m² 9,7 km/h (2 Bft) 100,00 %
26.03.2026 06:40 1,8 °C 1,1 °C -1,7 °C 93 % 1013,9 hPa 0,0 l/m² 0 min 7 W/m² 9,7 km/h (2 Bft) 99,12 %
26.03.2026 06:45 1,8 °C 1,1 °C -1,7 °C 93 % 1014,0 hPa 0,0 l/m² 0 min 9 W/m² 6,4 km/h (2 Bft) 98,25 %
26.03.2026 06:50 1,9 °C 1,1 °C -1,7 °C 93 % 1014,0 hPa 0,0 l/m² 0 min 11 W/m² 6,4 km/h (2 Bft) 98,25 %
26.03.2026 06:55 1,9 °C 1,1 °C -1,7 °C 93 % 1014,0 hPa 0,0 l/m² 0 min 14 W/m² 9,7 km/h (2 Bft) 98,25 %
26.03.2026 07:00 1,9 °C 1,1 °C -1,7 °C 94 % 1014,1 hPa 0,0 l/m² 0 min 16 W/m² 12,9 km/h (3 Bft) 71,05 %
26.03.2026 07:05 1,9 °C 1,7 °C -1,7 °C 94 % 1014,1 hPa 0,0 l/m² 0 min 19 W/m² 9,7 km/h (2 Bft) 98,25 %
26.03.2026 07:10 1,9 °C 1,7 °C -1,7 °C 94 % 1014,2 hPa 0,0 l/m² 0 min 20 W/m² 6,4 km/h (2 Bft) 94,74 %
26.03.2026 07:15 2,0 °C 1,7 °C -1,7 °C 94 % 1014,3 hPa 0,0 l/m² 0 min 22 W/m² 12,9 km/h (3 Bft) 98,25 %
26.03.2026 07:20 2,1 °C 1,7 °C -1,7 °C 94 % 1014,3 hPa 0,0 l/m² 0 min 25 W/m² 12,9 km/h (3 Bft) 100,00 %
26.03.2026 07:25 2,2 °C 1,7 °C -1,7 °C 94 % 1014,4 hPa 0,0 l/m² 0 min 26 W/m² 9,7 km/h (2 Bft) 100,00 %
26.03.2026 07:30 2,3 °C 2,2 °C -1,1 °C 94 % 1014,4 hPa 0,0 l/m² 0 min 28 W/m² 12,9 km/h (3 Bft) 99,12 %
26.03.2026 07:35 2,3 °C 2,2 °C -1,1 °C 94 % 1014,6 hPa 0,0 l/m² 0 min 30 W/m² 25,7 km/h (4 Bft) 100,00 %
26.03.2026 07:40 2,4 °C 2,2 °C -1,1 °C 94 % 1014,6 hPa 0,0 l/m² 0 min 31 W/m² 16,1 km/h (3 Bft) 100,00 %
26.03.2026 07:45 2,6 °C 2,2 °C -1,1 °C 93 % 1014,7 hPa 0,0 l/m² 0 min 33 W/m² 12,9 km/h (3 Bft) 100,00 %
26.03.2026 07:50 2,7 °C 2,8 °C -1,1 °C 93 % 1014,8 hPa 0,0 l/m² 0 min 34 W/m² 12,9 km/h (3 Bft) 100,00 %
26.03.2026 07:55 2,8 °C 2,8 °C -0,6 °C 93 % 1014,8 hPa 0,0 l/m² 0 min 36 W/m² 16,1 km/h (3 Bft) 99,12 %
26.03.2026 08:00 2,8 °C 2,8 °C -0,6 °C 93 % 1014,9 hPa 0,0 l/m² 0 min 37 W/m² 16,1 km/h (3 Bft) 99,12 %
26.03.2026 08:05 2,9 °C 2,8 °C -0,6 °C 93 % 1015,0 hPa 0,0 l/m² 0 min 38 W/m² 19,3 km/h (3 Bft) 100,00 %
26.03.2026 08:10 3,1 °C 3,3 °C -0,6 °C 93 % 1015,0 hPa 0,0 l/m² 0 min 40 W/m² 16,1 km/h (3 Bft) 100,00 %
26.03.2026 08:15 3,2 °C 3,3 °C -0,6 °C 92 % 1015,0 hPa 0,0 l/m² 0 min 42 W/m² 22,5 km/h (4 Bft) 100,00 %
26.03.2026 08:20 3,3 °C 3,3 °C -0,6 °C 92 % 1015,1 hPa 0,0 l/m² 0 min 44 W/m² 29,0 km/h (5 Bft) 100,00 %
26.03.2026 08:25 3,4 °C 3,3 °C -0,6 °C 92 % 1015,1 hPa 0,0 l/m² 0 min 50 W/m² 19,3 km/h (3 Bft) 100,00 %
26.03.2026 08:30 3,6 °C 3,3 °C 0,0 °C 91 % 1015,3 hPa 0,0 l/m² 0 min 118 W/m² 22,5 km/h (4 Bft) 78,07 %
26.03.2026 08:35 3,6 °C 3,3 °C 0,0 °C 91 % 1015,3 hPa 0,0 l/m² 0 min 99 W/m² 19,3 km/h (3 Bft) 96,49 %
26.03.2026 08:40 3,8 °C 4,4 °C 0,0 °C 90 % 1015,4 hPa 0,0 l/m² 0 min 71 W/m² 16,1 km/h (3 Bft) 100,00 %
26.03.2026 08:45 4,0 °C 4,4 °C 0,0 °C 89 % 1015,4 hPa 0,0 l/m² 0 min 58 W/m² 22,5 km/h (4 Bft) 96,49 %
26.03.2026 08:50 4,2 °C 5,0 °C 0,6 °C 89 % 1015,5 hPa 0,0 l/m² 0 min 169 W/m² 22,5 km/h (4 Bft) 97,37 %
26.03.2026 08:55 4,4 °C 6,1 °C 1,1 °C 88 % 1015,6 hPa 0,0 l/m² 5 min 299 W/m² 19,3 km/h (3 Bft) 99,12 %
26.03.2026 09:00 4,6 °C 8,3 °C 2,2 °C 87 % 1015,6 hPa 0,0 l/m² 5 min 218 W/m² 22,5 km/h (4 Bft) 97,37 %
26.03.2026 09:05 4,8 °C 10,0 °C 2,8 °C 86 % 1015,6 hPa 0,0 l/m² 5 min 333 W/m² 29,0 km/h (5 Bft) 98,25 %
26.03.2026 09:10 5,1 °C 12,2 °C 3,9 °C 85 % 1015,8 hPa 0,0 l/m² 5 min 395 W/m² 32,2 km/h (5 Bft) 100,00 %
26.03.2026 09:15 5,5 °C 12,2 °C 4,4 °C 84 % 1015,9 hPa 0,0 l/m² 5 min 470 W/m² 19,3 km/h (3 Bft) 100,00 %
26.03.2026 09:20 5,7 °C 8,3 °C 3,9 °C 82 % 1015,9 hPa 0,0 l/m² 5 min 297 W/m² 32,2 km/h (5 Bft) 99,12 %
26.03.2026 09:25 5,7 °C 7,2 °C 2,8 °C 81 % 1016,0 hPa 0,0 l/m² 0 min 212 W/m² 19,3 km/h (3 Bft) 100,00 %
26.03.2026 09:30 5,8 °C 7,8 °C 2,8 °C 80 % 1016,1 hPa 0,0 l/m² 5 min 269 W/m² 22,5 km/h (4 Bft) 100,00 %
26.03.2026 09:35 5,9 °C 7,2 °C 2,8 °C 79 % 1016,0 hPa 0,0 l/m² 5 min 239 W/m² 25,7 km/h (4 Bft) 100,00 %
26.03.2026 09:40 6,0 °C 6,7 °C 2,8 °C 79 % 1016,1 hPa 0,0 l/m² 0 min 121 W/m² 25,7 km/h (4 Bft) 100,00 %
26.03.2026 09:45 5,7 °C 5,6 °C 1,7 °C 80 % 1016,2 hPa 0,0 l/m² 0 min 106 W/m² 22,5 km/h (4 Bft) 100,00 %
26.03.2026 09:50 5,3 °C 6,1 °C 2,2 °C 81 % 1016,3 hPa 0,0 l/m² 0 min 205 W/m² 22,5 km/h (4 Bft) 100,00 %
26.03.2026 09:55 5,1 °C 5,6 °C 1,7 °C 81 % 1016,3 hPa 0,0 l/m² 0 min 136 W/m² 19,3 km/h (3 Bft) 100,00 %
26.03.2026 10:00 5,1 °C 9,4 °C 2,2 °C 81 % 1016,3 hPa 0,0 l/m² 0 min 195 W/m² 19,3 km/h (3 Bft) 99,12 %
26.03.2026 10:05 5,3 °C 8,9 °C 3,3 °C 82 % 1016,3 hPa 0,0 l/m² 5 min 343 W/m² 22,5 km/h (4 Bft) 97,37 %
26.03.2026 10:10 5,8 °C 8,9 °C 3,3 °C 81 % 1016,3 hPa 0,0 l/m² 0 min 248 W/m² 22,5 km/h (4 Bft) 98,25 %
26.03.2026 10:15 5,8 °C 8,3 °C 2,8 °C 80 % 1016,4 hPa 0,0 l/m² 5 min 360 W/m² 29,0 km/h (5 Bft) 96,49 %
26.03.2026 10:20 5,9 °C 10,0 °C 4,4 °C 80 % 1016,4 hPa 0,0 l/m² 5 min 598 W/m² 22,5 km/h (4 Bft) 100,00 %
26.03.2026 10:25 6,2 °C 8,3 °C 5,0 °C 79 % 1016,5 hPa 0,0 l/m² 5 min 479 W/m² 25,7 km/h (4 Bft) 97,37 %
26.03.2026 10:30 6,2 °C 6,7 °C 3,3 °C 78 % 1016,5 hPa 0,0 l/m² 0 min 223 W/m² 32,2 km/h (5 Bft) 97,37 %
26.03.2026 10:35 6,1 °C 10,0 °C 5,0 °C 77 % 1016,5 hPa 0,0 l/m² 5 min 488 W/m² 38,6 km/h (5 Bft) 99,12 %
26.03.2026 10:40 6,3 °C 8,3 °C 4,4 °C 76 % 1016,5 hPa 0,0 l/m² 5 min 340 W/m² 48,3 km/h (6 Bft) 96,49 %
26.03.2026 10:45 6,5 °C 11,7 °C 5,6 °C 77 % 1016,5 hPa 0,0 l/m² 5 min 479 W/m² 29,0 km/h (5 Bft) 99,12 %
26.03.2026 10:50 6,6 °C 9,4 °C 5,0 °C 76 % 1016,6 hPa 0,0 l/m² 0 min 266 W/m² 35,4 km/h (5 Bft) 96,49 %
26.03.2026 10:55 6,5 °C 7,2 °C 3,3 °C 75 % 1016,6 hPa 0,0 l/m² 0 min 144 W/m² 22,5 km/h (4 Bft) 99,12 %
26.03.2026 11:00 6,4 °C 6,1 °C 2,2 °C 77 % 1016,7 hPa 0,0 l/m² 0 min 59 W/m² 29,0 km/h (5 Bft) 100,00 %
26.03.2026 11:06 6,1 °C 10,6 °C 2,2 °C 79 % 1016,7 hPa 0,0 l/m² 5 min 707 W/m² 9,7 km/h (2 Bft) 100,00 %
26.03.2026 11:08 6,3 °C 13,9 °C 6,1 °C 80 % 1016,8 hPa 0,0 l/m² 2 min 735 W/m² 32,2 km/h (5 Bft) 97,87 %
26.03.2026 11:10 6,5 °C 13,9 °C 7,2 °C 80 % 1016,8 hPa 0,0 l/m² 2 min 733 W/m² 25,7 km/h (4 Bft) 100,00 %
26.03.2026 11:15 6,7 °C 14,4 °C 7,2 °C 78 % 1016,8 hPa 0,0 l/m² 5 min 435 W/m² 25,7 km/h (4 Bft) 100,00 %
26.03.2026 11:20 7,1 °C 15,6 °C 8,3 °C 76 % 1016,9 hPa 0,0 l/m² 5 min 700 W/m² 32,2 km/h (5 Bft) 100,00 %
26.03.2026 11:22 7,2 °C 13,3 °C 7,2 °C 75 % 1016,9 hPa 0,0 l/m² 2 min 390 W/m² 25,7 km/h (4 Bft) 100,00 %
26.03.2026 11:24 7,2 °C 11,7 °C 6,1 °C 74 % 1016,9 hPa 0,0 l/m² 2 min 397 W/m² 25,7 km/h (4 Bft) 100,00 %
26.03.2026 11:26 7,3 °C 10,6 °C 5,6 °C 74 % 1017,0 hPa 0,0 l/m² 0 min 213 W/m² 19,3 km/h (3 Bft) 100,00 %
26.03.2026 11:28 7,2 °C 8,3 °C 4,4 °C 73 % 1017,0 hPa 0,0 l/m² 0 min 91 W/m² 29,0 km/h (5 Bft) 100,00 %
26.03.2026 11:30 7,1 °C 7,2 °C 3,3 °C 73 % 1017,2 hPa 0,0 l/m² 0 min 52 W/m² 38,6 km/h (5 Bft) 100,00 %
26.03.2026 11:32 6,8 °C 5,6 °C 2,2 °C 73 % 1017,2 hPa 0,0 l/m² 0 min 45 W/m² 41,8 km/h (6 Bft) 100,00 %
26.03.2026 11:35 5,9 °C 4,4 °C 1,1 °C 76 % 1017,1 hPa 0,0 l/m² 0 min 63 W/m² 41,8 km/h (6 Bft) 100,00 %
26.03.2026 11:36 5,6 °C 3,9 °C 1,1 °C 77 % 1017,2 hPa 0,0 l/m² 0 min 112 W/m² 12,9 km/h (3 Bft) 100,00 %
26.03.2026 11:38 5,4 °C 3,9 °C 1,1 °C 79 % 1017,1 hPa 0,0 l/m² 0 min 129 W/m² 12,9 km/h (3 Bft) 100,00 %
26.03.2026 11:40 5,2 °C 4,4 °C 1,7 °C 80 % 1017,1 hPa 0,0 l/m² 0 min 141 W/m² 12,9 km/h (3 Bft) 100,00 %
26.03.2026 11:42 5,1 °C 5,0 °C 1,7 °C 81 % 1017,2 hPa 0,0 l/m² 0 min 135 W/m² 12,9 km/h (3 Bft) 100,00 %
26.03.2026 11:44 5,1 °C 5,0 °C 1,7 °C 81 % 1017,2 hPa 0,0 l/m² 0 min 127 W/m² 25,7 km/h (4 Bft) 97,87 %
26.03.2026 11:46 4,9 °C 5,0 °C 1,7 °C 82 % 1017,2 hPa 0,0 l/m² 0 min 131 W/m² 16,1 km/h (3 Bft) 100,00 %
26.03.2026 11:48 4,8 °C 5,6 °C 1,7 °C 82 % 1017,1 hPa 0,0 l/m² 0 min 181 W/m² 9,7 km/h (2 Bft) 100,00 %
26.03.2026 11:50 4,8 °C 7,8 °C 2,8 °C 83 % 1017,1 hPa 0,0 l/m² 0 min 290 W/m² 9,7 km/h (2 Bft) 100,00 %
26.03.2026 11:52 4,9 °C 11,1 °C 5,0 °C 84 % 1017,2 hPa 0,0 l/m² 2 min 522 W/m² 12,9 km/h (3 Bft) 100,00 %
26.03.2026 11:54 5,1 °C 13,3 °C 6,7 °C 84 % 1017,1 hPa 0,0 l/m² 2 min 665 W/m² 9,7 km/h (2 Bft) 100,00 %
26.03.2026 11:56 5,3 °C 15,0 °C 7,2 °C 85 % 1017,1 hPa 0,0 l/m² 2 min 698 W/m² 16,1 km/h (3 Bft) 100,00 %
26.03.2026 11:58 5,5 °C 15,6 °C 7,8 °C 85 % 1017,1 hPa 0,0 l/m² 2 min 699 W/m² 12,9 km/h (3 Bft) 100,00 %
26.03.2026 12:00 5,8 °C 16,1 °C 8,3 °C 85 % 1017,1 hPa 0,0 l/m² 2 min 697 W/m² 9,7 km/h (2 Bft) 100,00 %
26.03.2026 12:02 6,0 °C 16,7 °C 8,9 °C 85 % 1017,1 hPa 0,0 l/m² 2 min 699 W/m² 12,9 km/h (3 Bft) 100,00 %
26.03.2026 12:04 6,3 °C 16,7 °C 8,9 °C 84 % 1017,1 hPa 0,0 l/m² 2 min 698 W/m² 12,9 km/h (3 Bft) 97,87 %
26.03.2026 12:06 6,6 °C 17,2 °C 7,8 °C 84 % 1017,1 hPa 0,0 l/m² 2 min 697 W/m² 12,9 km/h (3 Bft) 100,00 %
26.03.2026 12:08 6,8 °C 17,2 °C 7,2 °C 83 % 1017,1 hPa 0,0 l/m² 2 min 697 W/m² 16,1 km/h (3 Bft) 100,00 %
26.03.2026 12:10 7,1 °C 17,2 °C 6,7 °C 82 % 1017,1 hPa 0,0 l/m² 2 min 698 W/m² 19,3 km/h (3 Bft) 100,00 %
26.03.2026 12:12 7,2 °C 17,2 °C 6,1 °C 81 % 1017,1 hPa 0,0 l/m² 2 min 698 W/m² 19,3 km/h (3 Bft) 95,74 %
26.03.2026 12:14 7,3 °C 17,2 °C 6,1 °C 80 % 1017,1 hPa 0,0 l/m² 2 min 700 W/m² 12,9 km/h (3 Bft) 96,00 %
26.03.2026 12:16 7,4 °C 17,2 °C 7,2 °C 79 % 1017,2 hPa 0,0 l/m² 2 min 700 W/m² 16,1 km/h (3 Bft) 97,14 %
26.03.2026 12:18 7,5 °C 17,2 °C 7,2 °C 79 % 1017,1 hPa 0,0 l/m² 2 min 702 W/m² 16,1 km/h (3 Bft) 98,11 %
26.03.2026 12:20 7,7 °C 17,2 °C 7,8 °C 78 % 1017,2 hPa 0,0 l/m² 2 min 704 W/m² 16,1 km/h (3 Bft) 98,00 %
26.03.2026 12:22 7,8 °C 17,2 °C 7,8 °C 78 % 1017,2 hPa 0,0 l/m² 2 min 705 W/m² 12,9 km/h (3 Bft) 98,00 %
26.03.2026 12:24 7,9 °C 17,2 °C 7,2 °C 77 % 1017,2 hPa 0,0 l/m² 2 min 710 W/m² 22,5 km/h (4 Bft) 97,56 %
26.03.2026 12:26 8,1 °C 17,8 °C 7,8 °C 76 % 1017,2 hPa 0,0 l/m² 2 min 727 W/m² 22,5 km/h (4 Bft) 97,87 %
26.03.2026 12:28 8,3 °C 18,9 °C 7,8 °C 76 % 1017,2 hPa 0,0 l/m² 2 min 743 W/m² 19,3 km/h (3 Bft) 98,00 %
26.03.2026 12:30 8,6 °C 20,0 °C 7,8 °C 75 % 1017,2 hPa 0,0 l/m² 2 min 750 W/m² 19,3 km/h (3 Bft) 97,87 %
26.03.2026 12:32 8,8 °C 18,9 °C 8,3 °C 74 % 1017,2 hPa 0,0 l/m² 2 min 796 W/m² 19,3 km/h (3 Bft) 97,87 %
26.03.2026 12:34 8,9 °C 16,1 °C 7,2 °C 73 % 1017,2 hPa 0,0 l/m² 2 min 453 W/m² 12,9 km/h (3 Bft) 97,87 %
26.03.2026 12:36 9,0 °C 17,8 °C 8,9 °C 73 % 1017,2 hPa 0,0 l/m² 2 min 651 W/m² 16,1 km/h (3 Bft) 97,14 %
26.03.2026 12:38 9,1 °C 17,2 °C 8,9 °C 71 % 1017,1 hPa 0,0 l/m² 2 min 912 W/m² 35,4 km/h (5 Bft) 98,28 %
26.03.2026 12:40 9,1 °C 13,9 °C 7,2 °C 69 % 1017,1 hPa 0,0 l/m² 2 min 533 W/m² 32,2 km/h (5 Bft) 96,00 %
26.03.2026 12:42 9,0 °C 12,2 °C 6,7 °C 68 % 1017,1 hPa 0,0 l/m² 0 min 267 W/m² 25,7 km/h (4 Bft) 95,74 %
26.03.2026 12:44 8,9 °C 11,7 °C 6,1 °C 68 % 1017,1 hPa 0,0 l/m² 0 min 252 W/m² 22,5 km/h (4 Bft) 100,00 %
26.03.2026 12:46 8,8 °C 11,7 °C 6,1 °C 68 % 1017,2 hPa 0,0 l/m² 0 min 212 W/m² 19,3 km/h (3 Bft) 100,00 %
26.03.2026 12:48 8,7 °C 15,0 °C 5,6 °C 66 % 1017,2 hPa 0,0 l/m² 2 min 671 W/m² 22,5 km/h (4 Bft) 100,00 %
26.03.2026 12:50 8,8 °C 16,7 °C 6,1 °C 67 % 1017,1 hPa 0,0 l/m² 2 min 786 W/m² 22,5 km/h (4 Bft) 97,87 %
26.03.2026 12:52 9,0 °C 18,3 °C 6,1 °C 67 % 1017,2 hPa 0,0 l/m² 2 min 784 W/m² 19,3 km/h (3 Bft) 100,00 %
26.03.2026 12:54 9,2 °C 18,9 °C 6,1 °C 64 % 1017,1 hPa 0,0 l/m² 2 min 790 W/m² 41,8 km/h (6 Bft) 96,00 %
26.03.2026 12:56 9,4 °C 19,4 °C 6,7 °C 63 % 1017,2 hPa 0,0 l/m² 2 min 801 W/m² 22,5 km/h (4 Bft) 98,00 %
26.03.2026 12:58 9,6 °C 20,0 °C 6,7 °C 63 % 1017,2 hPa 0,0 l/m² 2 min 808 W/m² 22,5 km/h (4 Bft) 95,74 %
26.03.2026 13:00 9,8 °C 18,9 °C 6,7 °C 62 % 1017,0 hPa 0,0 l/m² 2 min 849 W/m² 25,7 km/h (4 Bft) 97,37 %
26.03.2026 13:02 9,9 °C 16,1 °C 6,7 °C 62 % 1017,2 hPa 0,0 l/m² 0 min 316 W/m² 22,5 km/h (4 Bft) 97,87 %
26.03.2026 13:04 9,9 °C 16,1 °C 6,7 °C 62 % 1017,1 hPa 0,0 l/m² 0 min 283 W/m² 29,0 km/h (5 Bft) 96,00 %
26.03.2026 13:06 9,8 °C 13,3 °C 6,1 °C 60 % 1017,2 hPa 0,0 l/m² 0 min 283 W/m² 41,8 km/h (6 Bft) 96,15 %
26.03.2026 13:08 9,7 °C 12,2 °C 5,6 °C 60 % 1017,3 hPa 0,0 l/m² 0 min 265 W/m² 22,5 km/h (4 Bft) 97,14 %
26.03.2026 13:10 9,4 °C 10,6 °C 5,0 °C 61 % 1017,2 hPa 0,0 l/m² 0 min 170 W/m² 32,2 km/h (5 Bft) 98,11 %
26.03.2026 13:12 9,2 °C 9,4 °C 5,0 °C 63 % 1017,3 hPa 0,0 l/m² 0 min 133 W/m² 32,2 km/h (5 Bft) 54,35 %
26.03.2026 13:14 8,9 °C 8,9 °C 4,4 °C 63 % 1017,4 hPa 0,0 l/m² 0 min 121 W/m² 38,6 km/h (5 Bft) 98,00 %
26.03.2026 13:16 8,6 °C 9,4 °C 3,9 °C 63 % 1017,4 hPa 0,0 l/m² 0 min 128 W/m² 35,4 km/h (5 Bft) 97,87 %
26.03.2026 13:18 8,3 °C 8,9 °C 3,9 °C 64 % 1017,4 hPa 0,0 l/m² 0 min 143 W/m² 25,7 km/h (4 Bft) 93,88 %
26.03.2026 13:20 8,1 °C 8,9 °C 3,3 °C 65 % 1017,4 hPa 0,0 l/m² 0 min 109 W/m² 25,7 km/h (4 Bft) 97,96 %
26.03.2026 13:22 7,9 °C 12,8 °C 3,9 °C 66 % 1017,5 hPa 0,0 l/m² 2 min 576 W/m² 25,7 km/h (4 Bft) 97,22 %
26.03.2026 13:24 8,1 °C 14,4 °C 4,4 °C 69 % 1017,6 hPa 0,0 l/m² 2 min 828 W/m² 22,5 km/h (4 Bft) 97,87 %
26.03.2026 13:26 8,1 °C 14,4 °C 4,4 °C 69 % 1017,4 hPa 0,0 l/m² 2 min 816 W/m² 25,7 km/h (4 Bft) 97,87 %
26.03.2026 13:28 8,1 °C 15,0 °C 4,4 °C 69 % 1017,4 hPa 0,0 l/m² 2 min 782 W/m² 19,3 km/h (3 Bft) 97,87 %
26.03.2026 13:30 8,2 °C 15,6 °C 5,0 °C 70 % 1017,4 hPa 0,0 l/m² 2 min 722 W/m² 25,7 km/h (4 Bft) 97,83 %
26.03.2026 13:32 8,3 °C 15,6 °C 5,0 °C 69 % 1017,4 hPa 0,0 l/m² 2 min 760 W/m² 12,9 km/h (3 Bft) 97,87 %
26.03.2026 13:34 8,3 °C 15,0 °C 5,0 °C 70 % 1017,5 hPa 0,0 l/m² 2 min 744 W/m² 22,5 km/h (4 Bft) 96,49 %
26.03.2026 13:36 8,4 °C 15,6 °C 5,0 °C 70 % 1017,4 hPa 0,0 l/m² 2 min 788 W/m² 25,7 km/h (4 Bft) 95,74 %
26.03.2026 13:38 8,5 °C 15,6 °C 5,0 °C 70 % 1017,5 hPa 0,0 l/m² 2 min 852 W/m² 35,4 km/h (5 Bft) 97,87 %
26.03.2026 13:40 8,6 °C 13,3 °C 5,0 °C 69 % 1017,5 hPa 0,0 l/m² 2 min 877 W/m² 41,8 km/h (6 Bft) 97,37 %
26.03.2026 13:42 8,6 °C 12,8 °C 5,0 °C 69 % 1017,4 hPa 0,0 l/m² 2 min 440 W/m² 25,7 km/h (4 Bft) 97,87 %
26.03.2026 13:44 8,6 °C 13,9 °C 5,0 °C 69 % 1017,5 hPa 0,0 l/m² 2 min 698 W/m² 25,7 km/h (4 Bft) 97,96 %
26.03.2026 13:46 8,6 °C 14,4 °C 5,0 °C 69 % 1017,4 hPa 0,0 l/m² 2 min 690 W/m² 22,5 km/h (4 Bft) 98,00 %
26.03.2026 13:48 8,6 °C 15,6 °C 5,0 °C 69 % 1017,5 hPa 0,0 l/m² 2 min 747 W/m² 32,2 km/h (5 Bft) 87,50 %
26.03.2026 13:50 8,7 °C 16,1 °C 5,0 °C 70 % 1017,5 hPa 0,0 l/m² 2 min 781 W/m² 22,5 km/h (4 Bft) 98,51 %
26.03.2026 13:52 8,7 °C 15,6 °C 5,0 °C 69 % 1017,5 hPa 0,0 l/m² 2 min 770 W/m² 22,5 km/h (4 Bft) 97,87 %
26.03.2026 13:54 8,7 °C 15,6 °C 5,0 °C 70 % 1017,4 hPa 0,0 l/m² 2 min 715 W/m² 16,1 km/h (3 Bft) 96,00 %
26.03.2026 13:56 8,8 °C 15,0 °C 5,0 °C 70 % 1017,4 hPa 0,0 l/m² 2 min 714 W/m² 22,5 km/h (4 Bft) 100,00 %
26.03.2026 13:58 8,8 °C 15,6 °C 5,0 °C 70 % 1017,5 hPa 0,0 l/m² 2 min 704 W/m² 22,5 km/h (4 Bft) 98,00 %
26.03.2026 14:00 8,8 °C 15,6 °C 5,0 °C 69 % 1017,5 hPa 0,0 l/m² 2 min 731 W/m² 29,0 km/h (5 Bft) 96,15 %
26.03.2026 14:02 8,8 °C 15,6 °C 5,0 °C 69 % 1017,5 hPa 0,0 l/m² 2 min 706 W/m² 22,5 km/h (4 Bft) 97,87 %
26.03.2026 14:04 8,7 °C 15,6 °C 5,0 °C 68 % 1017,5 hPa 0,0 l/m² 2 min 676 W/m² 25,7 km/h (4 Bft) 95,74 %
26.03.2026 14:06 8,8 °C 15,6 °C 5,0 °C 67 % 1017,5 hPa 0,0 l/m² 2 min 672 W/m² 25,7 km/h (4 Bft) 96,00 %
26.03.2026 14:08 8,8 °C 15,6 °C 5,6 °C 65 % 1017,5 hPa 0,0 l/m² 2 min 670 W/m² 19,3 km/h (3 Bft) 96,00 %
26.03.2026 14:10 8,9 °C 16,1 °C 5,6 °C 65 % 1017,5 hPa 0,0 l/m² 2 min 667 W/m² 16,1 km/h (3 Bft) 100,00 %
26.03.2026 14:12 8,9 °C 16,1 °C 5,6 °C 64 % 1017,6 hPa 0,0 l/m² 2 min 664 W/m² 25,7 km/h (4 Bft) 90,00 %
26.03.2026 14:14 9,1 °C 16,1 °C 5,6 °C 63 % 1017,5 hPa 0,0 l/m² 2 min 661 W/m² 22,5 km/h (4 Bft) 97,96 %
26.03.2026 14:16 9,2 °C 15,6 °C 5,0 °C 63 % 1017,6 hPa 0,0 l/m² 2 min 657 W/m² 16,1 km/h (3 Bft) 97,87 %
26.03.2026 14:18 9,3 °C 15,6 °C 5,0 °C 63 % 1017,7 hPa 0,0 l/m² 2 min 654 W/m² 25,7 km/h (4 Bft) 97,56 %
26.03.2026 14:20 9,3 °C 15,6 °C 5,0 °C 63 % 1017,7 hPa 0,0 l/m² 2 min 651 W/m² 29,0 km/h (5 Bft) 98,11 %
26.03.2026 14:22 9,4 °C 16,1 °C 5,6 °C 63 % 1017,7 hPa 0,0 l/m² 2 min 650 W/m² 38,6 km/h (5 Bft) 97,37 %
26.03.2026 14:24 9,6 °C 16,7 °C 5,6 °C 62 % 1017,7 hPa 0,0 l/m² 2 min 651 W/m² 19,3 km/h (3 Bft) 98,00 %
26.03.2026 14:26 9,7 °C 16,7 °C 5,6 °C 62 % 1017,7 hPa 0,0 l/m² 2 min 658 W/m² 22,5 km/h (4 Bft) 97,78 %
26.03.2026 14:28 9,8 °C 17,2 °C 6,1 °C 62 % 1017,6 hPa 0,0 l/m² 2 min 712 W/m² 25,7 km/h (4 Bft) 96,30 %
26.03.2026 14:30 9,7 °C 13,9 °C 6,1 °C 62 % 1017,7 hPa 0,0 l/m² 2 min 470 W/m² 32,2 km/h (5 Bft) 97,37 %
26.03.2026 14:32 9,6 °C 11,7 °C 5,6 °C 60 % 1017,7 hPa 0,0 l/m² 0 min 221 W/m² 29,0 km/h (5 Bft) 96,15 %
26.03.2026 14:34 9,4 °C 10,0 °C 5,6 °C 61 % 1017,8 hPa 0,0 l/m² 0 min 219 W/m² 32,2 km/h (5 Bft) 98,00 %
26.03.2026 14:36 9,1 °C 8,9 °C 4,4 °C 63 % 1018,1 hPa 0,0 l/m² 0 min 135 W/m² 70,8 km/h (8 Bft) 100,00 %
26.03.2026 14:38 8,6 °C 7,2 °C 3,3 °C 65 % 1018,3 hPa 0,0 l/m² 0 min 95 W/m² 41,8 km/h (6 Bft) 100,00 %
26.03.2026 14:40 7,9 °C 6,1 °C 2,8 °C 67 % 1018,3 hPa 0,0 l/m² 0 min 115 W/m² 51,5 km/h (7 Bft) 100,00 %
26.03.2026 14:42 7,3 °C 6,1 °C 2,2 °C 70 % 1018,5 hPa 0,0 l/m² 0 min 178 W/m² 48,3 km/h (6 Bft) 100,00 %
26.03.2026 14:44 6,8 °C 6,1 °C 2,2 °C 72 % 1018,5 hPa 0,0 l/m² 0 min 258 W/m² 35,4 km/h (5 Bft) 100,00 %
26.03.2026 14:46 6,3 °C 6,1 °C 1,7 °C 75 % 1018,5 hPa 0,0 l/m² 2 min 314 W/m² 41,8 km/h (6 Bft) 100,00 %
26.03.2026 14:48 6,1 °C 6,1 °C 1,7 °C 77 % 1018,5 hPa 0,0 l/m² 2 min 351 W/m² 45,1 km/h (6 Bft) 100,00 %
26.03.2026 14:50 5,8 °C 6,7 °C 1,7 °C 79 % 1018,5 hPa 0,0 l/m² 2 min 437 W/m² 19,3 km/h (3 Bft) 100,00 %
26.03.2026 14:52 5,8 °C 7,8 °C 2,2 °C 81 % 1018,5 hPa 0,0 l/m² 2 min 470 W/m² 29,0 km/h (5 Bft) 100,00 %
26.03.2026 14:54 5,7 °C 7,8 °C 2,2 °C 82 % 1018,5 hPa 0,0 l/m² 2 min 349 W/m² 22,5 km/h (4 Bft) 100,00 %
26.03.2026 14:56 5,6 °C 7,2 °C 2,2 °C 83 % 1018,4 hPa 0,0 l/m² 2 min 319 W/m² 19,3 km/h (3 Bft) 98,00 %
26.03.2026 14:58 5,6 °C 7,2 °C 2,2 °C 83 % 1018,5 hPa 0,0 l/m² 2 min 323 W/m² 22,5 km/h (4 Bft) 100,00 %
26.03.2026 15:00 5,5 °C 7,2 °C 2,2 °C 84 % 1018,4 hPa 0,0 l/m² 2 min 297 W/m² 16,1 km/h (3 Bft) 100,00 %
26.03.2026 15:02 5,5 °C 8,3 °C 2,2 °C 85 % 1018,4 hPa 0,0 l/m² 2 min 369 W/m² 16,1 km/h (3 Bft) 100,00 %
26.03.2026 15:04 5,5 °C 10,0 °C 2,2 °C 85 % 1018,3 hPa 0,0 l/m² 2 min 527 W/m² 12,9 km/h (3 Bft) 100,00 %
26.03.2026 15:06 5,6 °C 11,7 °C 2,8 °C 86 % 1018,3 hPa 0,0 l/m² 2 min 529 W/m² 16,1 km/h (3 Bft) 100,00 %
26.03.2026 15:08 5,8 °C 12,2 °C 2,8 °C 86 % 1018,2 hPa 0,0 l/m² 2 min 506 W/m² 19,3 km/h (3 Bft) 97,87 %
26.03.2026 15:10 5,9 °C 12,8 °C 3,3 °C 86 % 1018,2 hPa 0,0 l/m² 2 min 571 W/m² 12,9 km/h (3 Bft) 97,87 %
26.03.2026 15:12 6,1 °C 13,3 °C 3,3 °C 86 % 1018,1 hPa 0,0 l/m² 2 min 573 W/m² 9,7 km/h (2 Bft) 100,00 %
26.03.2026 15:14 6,3 °C 13,9 °C 3,3 °C 85 % 1018,0 hPa 0,0 l/m² 2 min 559 W/m² 9,7 km/h (2 Bft) 98,00 %
26.03.2026 15:16 6,5 °C 13,3 °C 3,3 °C 84 % 1018,0 hPa 0,0 l/m² 2 min 548 W/m² 9,7 km/h (2 Bft) 95,74 %
26.03.2026 15:18 6,6 °C 13,3 °C 3,3 °C 84 % 1018,1 hPa 0,0 l/m² 2 min 542 W/m² 9,7 km/h (2 Bft) 100,00 %
26.03.2026 15:20 6,8 °C 13,3 °C 3,9 °C 83 % 1018,0 hPa 0,0 l/m² 2 min 536 W/m² 9,7 km/h (2 Bft) 100,00 %
26.03.2026 15:22 6,9 °C 13,3 °C 3,9 °C 82 % 1018,0 hPa 0,0 l/m² 2 min 529 W/m² 9,7 km/h (2 Bft) 97,83 %
26.03.2026 15:24 7,1 °C 13,3 °C 3,9 °C 81 % 1018,0 hPa 0,0 l/m² 2 min 525 W/m² 12,9 km/h (3 Bft) 100,00 %
26.03.2026 15:26 7,3 °C 13,3 °C 3,9 °C 80 % 1018,0 hPa 0,0 l/m² 2 min 519 W/m² 6,4 km/h (2 Bft) 95,74 %
26.03.2026 15:28 7,4 °C 13,3 °C 3,9 °C 80 % 1018,0 hPa 0,0 l/m² 2 min 514 W/m² 12,9 km/h (3 Bft) 97,87 %
26.03.2026 15:30 7,5 °C 13,3 °C 3,9 °C 79 % 1018,0 hPa 0,0 l/m² 2 min 507 W/m² 9,7 km/h (2 Bft) 98,00 %
26.03.2026 15:32 7,6 °C 13,3 °C 3,9 °C 77 % 1018,0 hPa 0,0 l/m² 2 min 504 W/m² 19,3 km/h (3 Bft) 100,00 %
26.03.2026 15:34 7,7 °C 12,8 °C 3,9 °C 77 % 1018,0 hPa 0,0 l/m² 2 min 501 W/m² 12,9 km/h (3 Bft) 100,00 %
26.03.2026 15:39 7,9 °C 12,8 °C 3,9 °C 76 % 1017,9 hPa 0,0 l/m² 5 min 490 W/m² 12,9 km/h (3 Bft) 100,00 %
26.03.2026 15:40 8,0 °C 12,8 °C 3,9 °C 75 % 1017,8 hPa 0,0 l/m² 1 min 483 W/m² 12,9 km/h (3 Bft) 100,00 %
26.03.2026 15:42 8,1 °C 13,3 °C 3,9 °C 75 % 1017,9 hPa 0,0 l/m² 2 min 481 W/m² 6,4 km/h (2 Bft) 97,87 %
26.03.2026 15:44 8,2 °C 12,8 °C 4,4 °C 74 % 1017,8 hPa 0,0 l/m² 2 min 481 W/m² 16,1 km/h (3 Bft) 96,23 %
26.03.2026 15:46 8,2 °C 12,8 °C 4,4 °C 72 % 1017,9 hPa 0,0 l/m² 2 min 480 W/m² 9,7 km/h (2 Bft) 97,87 %
26.03.2026 15:48 8,2 °C 12,8 °C 5,0 °C 72 % 1018,0 hPa 0,0 l/m² 2 min 476 W/m² 19,3 km/h (3 Bft) 97,87 %
26.03.2026 15:50 8,2 °C 10,6 °C 4,4 °C 71 % 1018,0 hPa 0,0 l/m² 2 min 296 W/m² 22,5 km/h (4 Bft) 95,24 %
26.03.2026 15:52 8,1 °C 8,9 °C 3,9 °C 71 % 1018,0 hPa 0,0 l/m² 0 min 53 W/m² 16,1 km/h (3 Bft) 97,87 %
26.03.2026 15:54 8,0 °C 7,8 °C 3,9 °C 71 % 1018,0 hPa 0,0 l/m² 0 min 48 W/m² 32,2 km/h (5 Bft) 97,83 %
26.03.2026 15:56 7,8 °C 7,2 °C 3,9 °C 71 % 1018,0 hPa 0,0 l/m² 0 min 49 W/m² 12,9 km/h (3 Bft) 98,15 %
26.03.2026 15:58 7,6 °C 6,7 °C 3,3 °C 71 % 1017,9 hPa 0,0 l/m² 0 min 42 W/m² 12,9 km/h (3 Bft) 97,87 %
26.03.2026 16:00 7,4 °C 6,7 °C 3,3 °C 72 % 1018,0 hPa 0,0 l/m² 0 min 27 W/m² 12,9 km/h (3 Bft) 97,37 %
26.03.2026 16:02 7,2 °C 6,1 °C 2,8 °C 73 % 1018,1 hPa 0,0 l/m² 0 min 22 W/m² 16,1 km/h (3 Bft) 96,00 %
26.03.2026 16:04 7,1 °C 6,1 °C 2,8 °C 74 % 1018,2 hPa 0,0 l/m² 0 min 35 W/m² 25,7 km/h (4 Bft) 97,87 %
26.03.2026 16:06 6,8 °C 5,6 °C 2,2 °C 75 % 1018,1 hPa 0,0 l/m² 0 min 88 W/m² 19,3 km/h (3 Bft) 97,87 %
26.03.2026 16:08 6,6 °C 6,1 °C 2,2 °C 76 % 1018,0 hPa 0,0 l/m² 0 min 157 W/m² 12,9 km/h (3 Bft) 97,87 %
26.03.2026 16:10 6,5 °C 6,7 °C 2,2 °C 77 % 1017,9 hPa 0,0 l/m² 2 min 256 W/m² 12,9 km/h (3 Bft) 95,65 %
26.03.2026 16:12 6,5 °C 8,3 °C 2,8 °C 78 % 1018,0 hPa 0,0 l/m² 2 min 290 W/m² 16,1 km/h (3 Bft) 97,87 %
26.03.2026 16:14 6,5 °C 9,4 °C 2,8 °C 78 % 1017,9 hPa 0,0 l/m² 2 min 464 W/m² 19,3 km/h (3 Bft) 95,74 %
26.03.2026 16:16 6,6 °C 10,6 °C 3,3 °C 78 % 1017,8 hPa 0,0 l/m² 2 min 504 W/m² 16,1 km/h (3 Bft) 98,00 %
26.03.2026 16:18 6,7 °C 11,1 °C 3,3 °C 78 % 1017,8 hPa 0,0 l/m² 2 min 457 W/m² 19,3 km/h (3 Bft) 97,87 %
26.03.2026 16:20 6,8 °C 11,1 °C 3,3 °C 76 % 1017,8 hPa 0,0 l/m² 2 min 420 W/m² 19,3 km/h (3 Bft) 93,62 %
26.03.2026 16:22 6,9 °C 11,7 °C 3,3 °C 74 % 1017,8 hPa 0,0 l/m² 2 min 390 W/m² 22,5 km/h (4 Bft) 97,56 %
26.03.2026 16:24 7,1 °C 11,7 °C 3,3 °C 74 % 1017,8 hPa 0,0 l/m² 2 min 377 W/m² 19,3 km/h (3 Bft) 94,23 %
26.03.2026 16:26 7,2 °C 11,7 °C 3,3 °C 72 % 1017,8 hPa 0,0 l/m² 2 min 368 W/m² 19,3 km/h (3 Bft) 93,62 %
26.03.2026 16:28 7,3 °C 11,7 °C 3,3 °C 72 % 1017,8 hPa 0,0 l/m² 2 min 361 W/m² 12,9 km/h (3 Bft) 92,00 %
26.03.2026 16:30 7,4 °C 12,2 °C 3,3 °C 71 % 1017,8 hPa 0,0 l/m² 2 min 354 W/m² 9,7 km/h (2 Bft) 93,62 %
26.03.2026 16:32 7,6 °C 11,7 °C 3,3 °C 71 % 1017,8 hPa 0,0 l/m² 2 min 346 W/m² 25,7 km/h (4 Bft) 95,74 %
26.03.2026 16:34 7,6 °C 11,1 °C 3,3 °C 69 % 1017,8 hPa 0,0 l/m² 2 min 343 W/m² 22,5 km/h (4 Bft) 92,11 %
26.03.2026 16:36 7,6 °C 11,7 °C 3,3 °C 68 % 1017,8 hPa 0,0 l/m² 2 min 339 W/m² 16,1 km/h (3 Bft) 94,00 %
26.03.2026 16:38 7,7 °C 11,1 °C 3,3 °C 68 % 1017,8 hPa 0,0 l/m² 2 min 334 W/m² 32,2 km/h (5 Bft) 93,62 %
26.03.2026 16:40 7,8 °C 11,7 °C 3,3 °C 67 % 1017,8 hPa 0,0 l/m² 2 min 330 W/m² 22,5 km/h (4 Bft) 92,31 %
26.03.2026 16:42 7,8 °C 11,7 °C 3,9 °C 66 % 1017,9 hPa 0,0 l/m² 2 min 325 W/m² 22,5 km/h (4 Bft) 93,62 %
26.03.2026 16:44 7,8 °C 12,2 °C 3,9 °C 66 % 1017,9 hPa 0,0 l/m² 2 min 326 W/m² 22,5 km/h (4 Bft) 94,29 %
26.03.2026 16:46 7,9 °C 12,2 °C 3,9 °C 66 % 1017,9 hPa 0,0 l/m² 2 min 329 W/m² 19,3 km/h (3 Bft) 92,00 %
26.03.2026 16:48 7,9 °C 12,2 °C 3,9 °C 67 % 1017,9 hPa 0,0 l/m² 2 min 318 W/m² 19,3 km/h (3 Bft) 95,74 %
26.03.2026 16:50 7,9 °C 11,7 °C 3,9 °C 66 % 1017,9 hPa 0,0 l/m² 2 min 303 W/m² 32,2 km/h (5 Bft) 94,00 %
26.03.2026 16:52 8,0 °C 11,1 °C 3,9 °C 64 % 1017,9 hPa 0,0 l/m² 2 min 299 W/m² 29,0 km/h (5 Bft) 96,00 %
26.03.2026 16:54 7,9 °C 10,6 °C 3,9 °C 62 % 1018,0 hPa 0,0 l/m² 2 min 293 W/m² 32,2 km/h (5 Bft) 95,74 %
26.03.2026 16:56 7,8 °C 8,9 °C 3,9 °C 62 % 1018,0 hPa 0,0 l/m² 2 min 175 W/m² 35,4 km/h (5 Bft) 94,74 %
26.03.2026 16:58 7,8 °C 9,4 °C 3,9 °C 61 % 1018,1 hPa 0,0 l/m² 2 min 193 W/m² 32,2 km/h (5 Bft) 96,00 %
26.03.2026 17:00 7,7 °C 8,9 °C 3,3 °C 61 % 1018,1 hPa 0,0 l/m² 2 min 259 W/m² 32,2 km/h (5 Bft) 97,83 %
26.03.2026 17:02 7,6 °C 7,8 °C 3,3 °C 61 % 1018,2 hPa 0,0 l/m² 0 min 77 W/m² 22,5 km/h (4 Bft) 95,74 %
26.03.2026 17:04 7,5 °C 7,2 °C 3,3 °C 62 % 1018,2 hPa 0,0 l/m² 0 min 62 W/m² 19,3 km/h (3 Bft) 95,74 %
26.03.2026 17:06 7,4 °C 7,2 °C 3,3 °C 62 % 1018,2 hPa 0,0 l/m² 0 min 69 W/m² 19,3 km/h (3 Bft) 93,62 %
26.03.2026 17:08 7,3 °C 7,8 °C 3,3 °C 62 % 1018,2 hPa 0,0 l/m² 2 min 210 W/m² 25,7 km/h (4 Bft) 96,00 %
26.03.2026 17:10 7,3 °C 7,8 °C 3,3 °C 62 % 1018,2 hPa 0,0 l/m² 2 min 295 W/m² 25,7 km/h (4 Bft) 95,74 %
26.03.2026 17:12 7,3 °C 7,8 °C 3,3 °C 63 % 1018,2 hPa 0,0 l/m² 2 min 244 W/m² 25,7 km/h (4 Bft) 96,00 %
26.03.2026 17:14 7,3 °C 7,8 °C 3,3 °C 63 % 1018,2 hPa 0,0 l/m² 2 min 130 W/m² 22,5 km/h (4 Bft) 100,00 %
26.03.2026 17:16 7,3 °C 7,2 °C 3,3 °C 63 % 1018,2 hPa 0,0 l/m² 0 min 112 W/m² 22,5 km/h (4 Bft) 98,44 %
26.03.2026 17:18 7,3 °C 7,2 °C 3,3 °C 64 % 1018,2 hPa 0,0 l/m² 0 min 117 W/m² 19,3 km/h (3 Bft) 100,00 %
26.03.2026 17:20 7,3 °C 7,8 °C 3,9 °C 64 % 1018,3 hPa 0,0 l/m² 2 min 198 W/m² 22,5 km/h (4 Bft) 100,00 %
26.03.2026 17:22 7,3 °C 8,3 °C 3,9 °C 64 % 1018,2 hPa 0,0 l/m² 2 min 277 W/m² 16,1 km/h (3 Bft) 95,74 %
26.03.2026 17:24 7,4 °C 8,3 °C 3,9 °C 65 % 1018,3 hPa 0,0 l/m² 2 min 167 W/m² 32,2 km/h (5 Bft) 98,11 %
26.03.2026 17:26 7,4 °C 8,3 °C 4,4 °C 65 % 1018,4 hPa 0,0 l/m² 2 min 171 W/m² 32,2 km/h (5 Bft) 97,87 %
26.03.2026 17:28 7,5 °C 8,9 °C 4,4 °C 65 % 1018,4 hPa 0,0 l/m² 2 min 217 W/m² 35,4 km/h (5 Bft) 100,00 %
26.03.2026 17:30 7,6 °C 8,9 °C 4,4 °C 62 % 1018,5 hPa 0,0 l/m² 2 min 208 W/m² 25,7 km/h (4 Bft) 95,74 %
26.03.2026 17:32 7,5 °C 8,9 °C 4,4 °C 61 % 1018,4 hPa 0,0 l/m² 2 min 193 W/m² 32,2 km/h (5 Bft) 100,00 %
26.03.2026 17:34 7,6 °C 8,3 °C 4,4 °C 61 % 1018,5 hPa 0,0 l/m² 2 min 182 W/m² 48,3 km/h (6 Bft) 100,00 %
26.03.2026 17:36 7,5 °C 8,3 °C 4,4 °C 60 % 1018,5 hPa 0,0 l/m² 2 min 173 W/m² 54,7 km/h (7 Bft) 100,00 %
26.03.2026 17:38 7,4 °C 8,3 °C 4,4 °C 61 % 1018,5 hPa 0,0 l/m² 2 min 165 W/m² 22,5 km/h (4 Bft) 100,00 %
26.03.2026 17:40 7,4 °C 8,3 °C 4,4 °C 61 % 1018,6 hPa 0,0 l/m² 2 min 153 W/m² 19,3 km/h (3 Bft) 100,00 %
26.03.2026 17:42 7,4 °C 8,3 °C 4,4 °C 60 % 1018,7 hPa 0,0 l/m² 2 min 139 W/m² 35,4 km/h (5 Bft) 100,00 %
26.03.2026 17:44 7,4 °C 7,8 °C 3,9 °C 61 % 1018,6 hPa 0,0 l/m² 2 min 128 W/m² 19,3 km/h (3 Bft) 100,00 %
26.03.2026 17:46 7,4 °C 8,3 °C 3,9 °C 61 % 1018,7 hPa 0,0 l/m² 2 min 121 W/m² 29,0 km/h (5 Bft) 98,00 %
26.03.2026 17:48 7,4 °C 7,8 °C 3,9 °C 60 % 1018,7 hPa 0,0 l/m² 2 min 87 W/m² 22,5 km/h (4 Bft) 100,00 %
26.03.2026 17:50 7,3 °C 7,8 °C 3,3 °C 60 % 1018,7 hPa 0,0 l/m² 0 min 53 W/m² 12,9 km/h (3 Bft) 100,00 %
26.03.2026 17:52 7,3 °C 7,2 °C 3,3 °C 60 % 1018,8 hPa 0,0 l/m² 0 min 45 W/m² 32,2 km/h (5 Bft) 100,00 %
26.03.2026 17:54 7,2 °C 6,7 °C 2,8 °C 60 % 1018,8 hPa 0,0 l/m² 0 min 31 W/m² 22,5 km/h (4 Bft) 100,00 %
26.03.2026 17:56 7,1 °C 6,7 °C 2,8 °C 61 % 1018,7 hPa 0,0 l/m² 0 min 27 W/m² 38,6 km/h (5 Bft) 100,00 %
26.03.2026 17:58 7,0 °C 6,1 °C 2,8 °C 61 % 1018,8 hPa 0,0 l/m² 0 min 25 W/m² 22,5 km/h (4 Bft) 100,00 %
26.03.2026 18:00 6,8 °C 6,1 °C 2,2 °C 62 % 1018,8 hPa 0,0 l/m² 0 min 26 W/m² 29,0 km/h (5 Bft) 100,00 %
26.03.2026 18:02 6,7 °C 5,6 °C 2,2 °C 61 % 1018,8 hPa 0,0 l/m² 0 min 26 W/m² 35,4 km/h (5 Bft) 100,00 %
26.03.2026 18:04 6,6 °C 5,6 °C 2,2 °C 61 % 1018,8 hPa 0,0 l/m² 0 min 26 W/m² 16,1 km/h (3 Bft) 100,00 %
26.03.2026 18:06 6,5 °C 5,6 °C 2,2 °C 62 % 1018,7 hPa 0,0 l/m² 0 min 26 W/m² 16,1 km/h (3 Bft) 100,00 %
26.03.2026 18:08 6,4 °C 5,6 °C 2,2 °C 62 % 1018,7 hPa 0,0 l/m² 0 min 25 W/m² 16,1 km/h (3 Bft) 100,00 %
26.03.2026 18:10 6,3 °C 5,6 °C 2,2 °C 62 % 1018,8 hPa 0,0 l/m² 0 min 19 W/m² 29,0 km/h (5 Bft) 100,00 %
26.03.2026 18:12 6,2 °C 5,6 °C 1,7 °C 62 % 1018,8 hPa 0,0 l/m² 0 min 18 W/m² 29,0 km/h (5 Bft) 100,00 %
26.03.2026 18:14 6,2 °C 5,6 °C 1,7 °C 62 % 1018,8 hPa 0,0 l/m² 0 min 18 W/m² 22,5 km/h (4 Bft) 100,00 %
26.03.2026 18:16 6,1 °C 5,0 °C 1,7 °C 63 % 1018,9 hPa 0,0 l/m² 0 min 19 W/m² 16,1 km/h (3 Bft) 100,00 %
26.03.2026 18:18 6,1 °C 5,0 °C 1,7 °C 63 % 1018,8 hPa 0,0 l/m² 0 min 17 W/m² 12,9 km/h (3 Bft) 100,00 %
26.03.2026 18:20 6,0 °C 5,0 °C 1,7 °C 64 % 1018,8 hPa 0,0 l/m² 0 min 15 W/m² 16,1 km/h (3 Bft) 100,00 %
26.03.2026 18:22 6,0 °C 5,0 °C 1,7 °C 64 % 1018,9 hPa 0,0 l/m² 0 min 14 W/m² 16,1 km/h (3 Bft) 100,00 %
26.03.2026 18:24 5,9 °C 5,0 °C 1,7 °C 64 % 1018,9 hPa 0,0 l/m² 0 min 14 W/m² 16,1 km/h (3 Bft) 97,87 %
26.03.2026 18:26 5,9 °C 5,0 °C 1,7 °C 64 % 1019,0 hPa 0,0 l/m² 0 min 14 W/m² 22,5 km/h (4 Bft) 97,87 %
26.03.2026 18:28 5,8 °C 5,0 °C 1,7 °C 64 % 1018,9 hPa 0,0 l/m² 0 min 15 W/m² 19,3 km/h (3 Bft) 100,00 %
26.03.2026 18:30 5,8 °C 5,0 °C 1,7 °C 64 % 1019,0 hPa 0,0 l/m² 0 min 16 W/m² 12,9 km/h (3 Bft) 100,00 %
26.03.2026 18:32 5,7 °C 5,0 °C 1,7 °C 65 % 1019,1 hPa 0,0 l/m² 0 min 16 W/m² 19,3 km/h (3 Bft) 95,74 %
26.03.2026 18:34 5,7 °C 5,0 °C 1,1 °C 65 % 1019,1 hPa 0,0 l/m² 0 min 16 W/m² 12,9 km/h (3 Bft) 100,00 %
26.03.2026 18:36 5,6 °C 4,4 °C 1,1 °C 66 % 1019,2 hPa 0,0 l/m² 0 min 15 W/m² 22,5 km/h (4 Bft) 100,00 %
26.03.2026 18:38 5,6 °C 4,4 °C 1,1 °C 66 % 1019,3 hPa 0,0 l/m² 0 min 13 W/m² 25,7 km/h (4 Bft) 100,00 %
26.03.2026 18:40 5,5 °C 4,4 °C 1,1 °C 67 % 1019,3 hPa 0,0 l/m² 0 min 12 W/m² 32,2 km/h (5 Bft) 95,74 %
26.03.2026 18:42 5,4 °C 4,4 °C 1,1 °C 67 % 1019,4 hPa 0,0 l/m² 0 min 11 W/m² 25,7 km/h (4 Bft) 100,00 %
26.03.2026 18:44 5,3 °C 4,4 °C 1,1 °C 68 % 1019,4 hPa 0,0 l/m² 0 min 10 W/m² 12,9 km/h (3 Bft) 97,83 %
26.03.2026 18:46 5,2 °C 3,9 °C 0,6 °C 69 % 1019,4 hPa 0,0 l/m² 0 min 9 W/m² 29,0 km/h (5 Bft) 97,87 %
26.03.2026 18:48 5,2 °C 3,9 °C 0,6 °C 70 % 1019,5 hPa 0,0 l/m² 0 min 7 W/m² 12,9 km/h (3 Bft) 97,87 %
26.03.2026 18:50 5,1 °C 3,9 °C 0,6 °C 70 % 1019,5 hPa 0,0 l/m² 0 min 7 W/m² 6,4 km/h (2 Bft) 95,24 %
26.03.2026 18:52 5,0 °C 3,9 °C 0,6 °C 71 % 1019,5 hPa 0,0 l/m² 0 min 7 W/m² 16,1 km/h (3 Bft) 95,74 %
26.03.2026 18:54 4,9 °C 3,9 °C 0,6 °C 71 % 1019,6 hPa 0,0 l/m² 0 min 6 W/m² 19,3 km/h (3 Bft) 95,74 %
26.03.2026 18:56 4,9 °C 3,9 °C 0,6 °C 71 % 1019,5 hPa 0,0 l/m² 0 min 5 W/m² 12,9 km/h (3 Bft) 93,62 %
26.03.2026 18:58 4,8 °C 3,9 °C 0,6 °C 72 % 1019,5 hPa 0,0 l/m² 0 min 5 W/m² 12,9 km/h (3 Bft) 95,74 %
26.03.2026 19:00 4,8 °C 3,3 °C 0,6 °C 72 % 1019,5 hPa 0,0 l/m² 0 min 0 W/m² 12,9 km/h (3 Bft) 94,00 %
26.03.2026 19:02 4,7 °C 3,3 °C 0,0 °C 73 % 1019,7 hPa 0,0 l/m² 0 min 0 W/m² 19,3 km/h (3 Bft) 96,67 %
26.03.2026 19:04 4,7 °C 3,3 °C 0,0 °C 73 % 1019,7 hPa 0,0 l/m² 0 min 0 W/m² 16,1 km/h (3 Bft) 95,31 %
26.03.2026 19:06 4,6 °C 3,3 °C 0,0 °C 73 % 1019,7 hPa 0,0 l/m² 0 min 0 W/m² 9,7 km/h (2 Bft) 95,74 %
26.03.2026 19:08 4,6 °C 3,3 °C 0,0 °C 73 % 1019,7 hPa 0,0 l/m² 0 min 0 W/m² 9,7 km/h (2 Bft) 95,74 %
26.03.2026 19:10 4,4 °C 3,3 °C 0,0 °C 74 % 1019,7 hPa 0,0 l/m² 0 min 0 W/m² 16,1 km/h (3 Bft) 95,74 %
26.03.2026 19:12 4,4 °C 3,3 °C 0,0 °C 74 % 1019,8 hPa 0,0 l/m² 0 min 0 W/m² 19,3 km/h (3 Bft) 95,74 %
26.03.2026 19:14 4,3 °C 3,3 °C 0,0 °C 74 % 1019,8 hPa 0,0 l/m² 0 min 0 W/m² 16,1 km/h (3 Bft) 97,87 %
26.03.2026 19:16 4,3 °C 3,3 °C 0,0 °C 74 % 1019,8 hPa 0,0 l/m² 0 min 0 W/m² 6,4 km/h (2 Bft) 97,83 %
26.03.2026 19:18 4,3 °C 3,3 °C 0,0 °C 74 % 1019,8 hPa 0,0 l/m² 0 min 0 W/m² 3,2 km/h (1 Bft) 95,74 %
26.03.2026 19:20 4,2 °C 3,3 °C 0,0 °C 74 % 1019,8 hPa 0,0 l/m² 0 min 0 W/m² 12,9 km/h (3 Bft) 97,87 %
26.03.2026 19:22 4,2 °C 3,3 °C 0,0 °C 74 % 1019,9 hPa 0,0 l/m² 0 min 0 W/m² 9,7 km/h (2 Bft) 97,87 %
26.03.2026 19:24 4,2 °C 3,3 °C 0,0 °C 74 % 1020,0 hPa 0,0 l/m² 0 min 0 W/m² 9,7 km/h (2 Bft) 97,87 %
26.03.2026 19:26 4,2 °C 2,8 °C 0,0 °C 75 % 1020,0 hPa 0,0 l/m² 0 min 0 W/m² 9,7 km/h (2 Bft) 97,87 %
26.03.2026 19:28 4,1 °C 2,8 °C 0,0 °C 75 % 1020,0 hPa 0,0 l/m² 0 min 0 W/m² 9,7 km/h (2 Bft) 97,87 %
26.03.2026 19:30 4,1 °C 2,8 °C 0,0 °C 75 % 1020,1 hPa 0,0 l/m² 0 min 0 W/m² 16,1 km/h (3 Bft) 97,87 %
26.03.2026 19:32 4,1 °C 2,8 °C -0,6 °C 75 % 1020,1 hPa 0,0 l/m² 0 min 0 W/m² 9,7 km/h (2 Bft) 100,00 %
26.03.2026 19:34 3,9 °C 2,8 °C -0,6 °C 75 % 1020,1 hPa 0,0 l/m² 0 min 0 W/m² 9,7 km/h (2 Bft) 100,00 %
26.03.2026 19:36 3,9 °C 2,8 °C -0,6 °C 75 % 1020,2 hPa 0,0 l/m² 0 min 0 W/m² 9,7 km/h (2 Bft) 100,00 %
26.03.2026 19:38 3,9 °C 2,8 °C -0,6 °C 76 % 1020,2 hPa 0,0 l/m² 0 min 0 W/m² 6,4 km/h (2 Bft) 100,00 %
26.03.2026 19:40 3,8 °C 2,8 °C -0,6 °C 76 % 1020,3 hPa 0,0 l/m² 0 min 0 W/m² 9,7 km/h (2 Bft) 97,87 %
26.03.2026 19:42 3,8 °C 2,8 °C -0,6 °C 76 % 1020,3 hPa 0,0 l/m² 0 min 0 W/m² 6,4 km/h (2 Bft) 97,37 %
26.03.2026 19:44 3,8 °C 2,8 °C -0,6 °C 76 % 1020,3 hPa 0,0 l/m² 0 min 0 W/m² 9,7 km/h (2 Bft) 97,87 %
26.03.2026 19:46 3,7 °C 2,8 °C -0,6 °C 77 % 1020,4 hPa 0,0 l/m² 0 min 0 W/m² 6,4 km/h (2 Bft) 97,87 %
26.03.2026 19:48 3,7 °C 2,8 °C -0,6 °C 77 % 1020,4 hPa 0,0 l/m² 0 min 0 W/m² 9,7 km/h (2 Bft) 97,87 %
26.03.2026 19:50 3,7 °C 2,8 °C -0,6 °C 77 % 1020,4 hPa 0,0 l/m² 0 min 0 W/m² 6,4 km/h (2 Bft) 95,65 %
26.03.2026 19:52 3,6 °C 2,2 °C -0,6 °C 77 % 1020,4 hPa 0,0 l/m² 0 min 0 W/m² 9,7 km/h (2 Bft) 97,87 %
26.03.2026 19:54 3,6 °C 2,2 °C -0,6 °C 77 % 1020,4 hPa 0,0 l/m² 0 min 0 W/m² 12,9 km/h (3 Bft) 97,87 %
26.03.2026 19:56 3,6 °C 2,2 °C -0,6 °C 77 % 1020,4 hPa 0,0 l/m² 0 min 0 W/m² 6,4 km/h (2 Bft) 95,74 %
26.03.2026 19:58 3,5 °C 2,2 °C -0,6 °C 78 % 1020,5 hPa 0,0 l/m² 0 min 0 W/m² 9,7 km/h (2 Bft) 96,00 %
26.03.2026 20:00 3,4 °C 2,2 °C -0,6 °C 78 % 1020,5 hPa 0,0 l/m² 0 min 0 W/m² 6,4 km/h (2 Bft) 97,87 %
26.03.2026 20:02 3,4 °C 2,2 °C -0,6 °C 78 % 1020,5 hPa 0,0 l/m² 0 min 0 W/m² 6,4 km/h (2 Bft) 97,87 %
26.03.2026 20:04 3,4 °C 2,2 °C -0,6 °C 79 % 1020,5 hPa 0,0 l/m² 0 min 0 W/m² 9,7 km/h (2 Bft) 97,87 %
26.03.2026 20:06 3,3 °C 2,2 °C -0,6 °C 79 % 1020,6 hPa 0,0 l/m² 0 min 0 W/m² 3,2 km/h (1 Bft) 97,96 %
26.03.2026 20:08 3,3 °C 2,2 °C -0,6 °C 79 % 1020,6 hPa 0,0 l/m² 0 min 0 W/m² 3,2 km/h (1 Bft) 97,87 %
26.03.2026 20:10 3,3 °C 2,2 °C -1,1 °C 79 % 1020,6 hPa 0,0 l/m² 0 min 0 W/m² 6,4 km/h (2 Bft) 98,00 %
26.03.2026 20:12 3,2 °C 2,2 °C -1,1 °C 79 % 1020,6 hPa 0,0 l/m² 0 min 0 W/m² 3,2 km/h (1 Bft) 97,87 %
26.03.2026 20:14 3,2 °C 2,2 °C -1,1 °C 79 % 1020,6 hPa 0,0 l/m² 0 min 0 W/m² 9,7 km/h (2 Bft) 95,74 %
26.03.2026 20:16 3,2 °C 2,2 °C -1,1 °C 80 % 1020,7 hPa 0,0 l/m² 0 min 0 W/m² 6,4 km/h (2 Bft) 97,87 %
26.03.2026 20:18 3,1 °C 2,2 °C -1,1 °C 80 % 1020,7 hPa 0,0 l/m² 0 min 0 W/m² 6,4 km/h (2 Bft) 97,87 %
26.03.2026 20:20 3,1 °C 2,2 °C -1,1 °C 80 % 1020,8 hPa 0,0 l/m² 0 min 0 W/m² 6,4 km/h (2 Bft) 97,37 %
26.03.2026 20:22 3,1 °C 2,2 °C -1,1 °C 80 % 1020,8 hPa 0,0 l/m² 0 min 0 W/m² 6,4 km/h (2 Bft) 95,65 %
26.03.2026 20:24 2,9 °C 1,7 °C -1,1 °C 80 % 1020,8 hPa 0,0 l/m² 0 min 0 W/m² 3,2 km/h (1 Bft) 95,74 %
26.03.2026 20:26 2,9 °C 1,7 °C -1,1 °C 81 % 1020,9 hPa 0,0 l/m² 0 min 0 W/m² 6,4 km/h (2 Bft) 93,62 %
26.03.2026 20:28 2,9 °C 1,7 °C -1,1 °C 81 % 1020,9 hPa 0,0 l/m² 0 min 0 W/m² 6,4 km/h (2 Bft) 96,00 %
26.03.2026 20:30 2,9 °C 1,7 °C -1,1 °C 81 % 1020,9 hPa 0,0 l/m² 0 min 0 W/m² 6,4 km/h (2 Bft) 95,74 %
26.03.2026 20:32 2,8 °C 1,7 °C -1,1 °C 81 % 1020,9 hPa 0,0 l/m² 0 min 0 W/m² 9,7 km/h (2 Bft) 95,74 %
26.03.2026 20:34 2,8 °C 1,7 °C -1,1 °C 81 % 1020,9 hPa 0,0 l/m² 0 min 0 W/m² 12,9 km/h (3 Bft) 95,65 %
26.03.2026 20:36 2,8 °C 1,7 °C -1,1 °C 82 % 1020,9 hPa 0,0 l/m² 0 min 0 W/m² 6,4 km/h (2 Bft) 95,74 %
26.03.2026 20:38 2,8 °C 1,7 °C -1,1 °C 82 % 1020,9 hPa 0,0 l/m² 0 min 0 W/m² 12,9 km/h (3 Bft) 61,70 %
26.03.2026 20:40 2,7 °C 1,7 °C -1,1 °C 82 % 1020,9 hPa 0,0 l/m² 0 min 0 W/m² 12,9 km/h (3 Bft) 88,37 %
26.03.2026 20:42 2,7 °C 1,7 °C -1,1 °C 82 % 1020,9 hPa 0,0 l/m² 0 min 0 W/m² 6,4 km/h (2 Bft) 97,87 %
26.03.2026 20:44 2,7 °C 1,7 °C -1,1 °C 82 % 1020,9 hPa 0,0 l/m² 0 min 0 W/m² 6,4 km/h (2 Bft) 95,74 %
26.03.2026 20:46 2,7 °C 1,7 °C -1,1 °C 82 % 1020,9 hPa 0,0 l/m² 0 min 0 W/m² 12,9 km/h (3 Bft) 95,92 %
26.03.2026 20:48 2,6 °C 1,7 °C -1,1 °C 82 % 1020,9 hPa 0,0 l/m² 0 min 0 W/m² 6,4 km/h (2 Bft) 93,62 %
26.03.2026 20:50 2,6 °C 1,7 °C -1,1 °C 82 % 1020,9 hPa 0,0 l/m² 0 min 0 W/m² 9,7 km/h (2 Bft) 100,00 %
26.03.2026 20:52 2,6 °C 1,7 °C -1,1 °C 82 % 1020,9 hPa 0,0 l/m² 0 min 0 W/m² 6,4 km/h (2 Bft) 97,87 %
26.03.2026 20:54 2,6 °C 1,7 °C -1,1 °C 83 % 1021,0 hPa 0,0 l/m² 0 min 0 W/m² 6,4 km/h (2 Bft) 97,87 %
26.03.2026 20:56 2,6 °C 1,7 °C -1,1 °C 83 % 1020,9 hPa 0,0 l/m² 0 min 0 W/m² 6,4 km/h (2 Bft) 93,88 %
26.03.2026 20:58 2,6 °C 1,7 °C -1,1 °C 83 % 1021,0 hPa 0,0 l/m² 0 min 0 W/m² 6,4 km/h (2 Bft) 97,87 %
26.03.2026 21:00 2,6 °C 1,7 °C -1,7 °C 83 % 1021,0 hPa 0,0 l/m² 0 min 0 W/m² 6,4 km/h (2 Bft) 94,29 %
26.03.2026 21:02 2,6 °C 1,7 °C -1,7 °C 83 % 1021,0 hPa 0,0 l/m² 0 min 0 W/m² 3,2 km/h (1 Bft) 94,64 %
26.03.2026 21:04 2,5 °C 1,7 °C -1,7 °C 83 % 1021,1 hPa 0,0 l/m² 0 min 0 W/m² 6,4 km/h (2 Bft) 98,00 %
26.03.2026 21:06 2,5 °C 1,7 °C -1,7 °C 83 % 1021,1 hPa 0,0 l/m² 0 min 0 W/m² 3,2 km/h (1 Bft) 93,62 %
26.03.2026 21:08 2,5 °C 1,7 °C -1,7 °C 83 % 1021,1 hPa 0,0 l/m² 0 min 0 W/m² 6,4 km/h (2 Bft) 97,83 %
26.03.2026 21:10 2,4 °C 1,7 °C -1,7 °C 83 % 1021,2 hPa 0,0 l/m² 0 min 0 W/m² 6,4 km/h (2 Bft) 95,74 %
26.03.2026 21:12 2,4 °C 1,7 °C -1,7 °C 83 % 1021,2 hPa 0,0 l/m² 0 min 0 W/m² 3,2 km/h (1 Bft) 95,74 %
26.03.2026 21:14 2,4 °C 1,1 °C -1,7 °C 84 % 1021,3 hPa 0,0 l/m² 0 min 0 W/m² 6,4 km/h (2 Bft) 97,37 %
26.03.2026 21:16 2,4 °C 1,1 °C -1,7 °C 84 % 1021,3 hPa 0,0 l/m² 0 min 0 W/m² 6,4 km/h (2 Bft) 97,37 %
26.03.2026 21:18 2,3 °C 1,1 °C -1,7 °C 84 % 1021,3 hPa 0,0 l/m² 0 min 0 W/m² 9,7 km/h (2 Bft) 96,23 %
26.03.2026 21:20 2,3 °C 1,1 °C -1,7 °C 84 % 1021,3 hPa 0,0 l/m² 0 min 0 W/m² 9,7 km/h (2 Bft) 96,00 %
26.03.2026 21:22 2,3 °C 1,1 °C -1,7 °C 84 % 1021,3 hPa 0,0 l/m² 0 min 0 W/m² 6,4 km/h (2 Bft) 95,65 %
26.03.2026 21:24 2,3 °C 1,1 °C -1,7 °C 84 % 1021,4 hPa 0,0 l/m² 0 min 0 W/m² 9,7 km/h (2 Bft) 96,23 %
26.03.2026 21:26 2,3 °C 1,7 °C -1,7 °C 84 % 1021,4 hPa 0,0 l/m² 0 min 0 W/m² 9,7 km/h (2 Bft) 56,52 %
26.03.2026 21:28 2,3 °C 1,7 °C -1,7 °C 84 % 1021,4 hPa 0,0 l/m² 0 min 0 W/m² 6,4 km/h (2 Bft) 97,87 %
26.03.2026 21:30 2,3 °C 1,7 °C -1,7 °C 84 % 1021,3 hPa 0,0 l/m² 0 min 0 W/m² 0,0 km/h (0 Bft) 97,87 %
26.03.2026 21:32 2,3 °C 1,1 °C -1,7 °C 84 % 1021,3 hPa 0,0 l/m² 0 min 0 W/m² 6,4 km/h (2 Bft) 97,83 %
26.03.2026 21:34 2,3 °C 1,7 °C -1,7 °C 84 % 1021,3 hPa 0,0 l/m² 0 min 0 W/m² 3,2 km/h (1 Bft) 100,00 %
26.03.2026 21:36 2,2 °C 1,1 °C -1,7 °C 85 % 1021,3 hPa 0,0 l/m² 0 min 0 W/m² 6,4 km/h (2 Bft) 97,87 %
26.03.2026 21:40 2,2 °C 1,1 °C -1,7 °C 84 % 1021,4 hPa 0,0 l/m² 0 min 0 W/m² 6,4 km/h (2 Bft) 100,00 %
26.03.2026 21:42 2,2 °C 1,1 °C -1,7 °C 84 % 1021,4 hPa 0,0 l/m² 0 min 0 W/m² 3,2 km/h (1 Bft) 97,62 %
26.03.2026 21:44 2,2 °C 1,1 °C -2,2 °C 84 % 1021,5 hPa 0,0 l/m² 0 min 0 W/m² 0,0 km/h (0 Bft) 100,00 %
26.03.2026 21:46 2,2 °C 1,1 °C -2,2 °C 84 % 1021,5 hPa 0,0 l/m² 0 min 0 W/m² 3,2 km/h (1 Bft) 100,00 %
26.03.2026 21:48 2,1 °C 1,1 °C -2,2 °C 85 % 1021,5 hPa 0,0 l/m² 0 min 0 W/m² 3,2 km/h (1 Bft) 97,37 %
26.03.2026 21:50 2,1 °C 1,1 °C -2,2 °C 85 % 1021,5 hPa 0,0 l/m² 0 min 0 W/m² 0,0 km/h (0 Bft) 95,74 %
26.03.2026 21:52 2,1 °C 1,1 °C -2,2 °C 85 % 1021,5 hPa 0,0 l/m² 0 min 0 W/m² 0,0 km/h (0 Bft) 100,00 %
26.03.2026 21:54 2,1 °C 1,1 °C -2,2 °C 85 % 1021,5 hPa 0,0 l/m² 0 min 0 W/m² 0,0 km/h (0 Bft) 95,74 %
26.03.2026 21:56 2,1 °C 0,6 °C -2,2 °C 85 % 1021,6 hPa 0,0 l/m² 0 min 0 W/m² 0,0 km/h (0 Bft) 97,87 %
26.03.2026 21:58 2,1 °C 0,6 °C -2,2 °C 85 % 1021,6 hPa 0,0 l/m² 0 min 0 W/m² 0,0 km/h (0 Bft) 97,87 %
26.03.2026 22:00 2,0 °C 0,6 °C -2,2 °C 85 % 1021,6 hPa 0,0 l/m² 0 min 0 W/m² 0,0 km/h (0 Bft) 97,87 %
26.03.2026 22:02 2,0 °C 0,6 °C -2,2 °C 85 % 1021,6 hPa 0,0 l/m² 0 min 0 W/m² 0,0 km/h (0 Bft) 98,00 %
26.03.2026 22:04 2,0 °C 1,1 °C -2,2 °C 85 % 1021,6 hPa 0,0 l/m² 0 min 0 W/m² 0,0 km/h (0 Bft) 98,00 %
26.03.2026 22:06 2,0 °C 1,1 °C -2,2 °C 85 % 1021,6 hPa 0,0 l/m² 0 min 0 W/m² 0,0 km/h (0 Bft) 97,87 %
26.03.2026 22:08 2,0 °C 1,1 °C -1,7 °C 85 % 1021,6 hPa 0,0 l/m² 0 min 0 W/m² 0,0 km/h (0 Bft) 95,74 %
26.03.2026 22:10 2,0 °C 1,1 °C -1,7 °C 85 % 1021,5 hPa 0,0 l/m² 0 min 0 W/m² 0,0 km/h (0 Bft) 97,30 %
26.03.2026 22:12 2,0 °C 1,1 °C -1,7 °C 86 % 1021,6 hPa 0,0 l/m² 0 min 0 W/m² 0,0 km/h (0 Bft) 98,00 %
26.03.2026 22:14 2,0 °C 1,1 °C -1,7 °C 86 % 1021,7 hPa 0,0 l/m² 0 min 0 W/m² 0,0 km/h (0 Bft) 97,83 %
26.03.2026 22:16 2,0 °C 1,7 °C -1,7 °C 86 % 1021,7 hPa 0,0 l/m² 0 min 0 W/m² 0,0 km/h (0 Bft) 97,87 %
26.03.2026 22:18 2,1 °C 1,7 °C -1,7 °C 86 % 1021,8 hPa 0,0 l/m² 0 min 0 W/m² 0,0 km/h (0 Bft) 97,87 %
26.03.2026 22:20 2,1 °C 1,7 °C -1,7 °C 86 % 1021,8 hPa 0,0 l/m² 0 min 0 W/m² 0,0 km/h (0 Bft) 97,87 %
26.03.2026 22:22 2,1 °C 1,7 °C -1,7 °C 86 % 1021,8 hPa 0,0 l/m² 0 min 0 W/m² 0,0 km/h (0 Bft) 100,00 %
26.03.2026 22:24 2,1 °C 1,7 °C -1,7 °C 87 % 1021,9 hPa 0,0 l/m² 0 min 0 W/m² 0,0 km/h (0 Bft) 100,00 %
26.03.2026 22:26 2,2 °C 1,7 °C -1,7 °C 87 % 1021,7 hPa 0,0 l/m² 0 min 0 W/m² 0,0 km/h (0 Bft) 100,00 %
26.03.2026 22:28 2,2 °C 1,7 °C -1,7 °C 87 % 1021,8 hPa 0,0 l/m² 0 min 0 W/m² 0,0 km/h (0 Bft) 100,00 %
26.03.2026 22:30 2,2 °C 1,7 °C -1,7 °C 87 % 1021,8 hPa 0,0 l/m² 0 min 0 W/m² 9,7 km/h (2 Bft) 100,00 %
26.03.2026 22:32 2,2 °C 1,7 °C -1,1 °C 87 % 1021,9 hPa 0,0 l/m² 0 min 0 W/m² 6,4 km/h (2 Bft) 100,00 %
26.03.2026 22:34 2,2 °C 1,7 °C -1,1 °C 87 % 1021,9 hPa 0,0 l/m² 0 min 0 W/m² 0,0 km/h (0 Bft) 100,00 %
26.03.2026 22:36 2,3 °C 1,7 °C -1,1 °C 87 % 1021,9 hPa 0,0 l/m² 0 min 0 W/m² 0,0 km/h (0 Bft) 100,00 %
26.03.2026 22:38 2,3 °C 1,7 °C -1,1 °C 87 % 1021,9 hPa 0,0 l/m² 0 min 0 W/m² 0,0 km/h (0 Bft) 97,87 %
26.03.2026 22:40 2,3 °C 1,7 °C -1,1 °C 87 % 1021,9 hPa 0,0 l/m² 0 min 0 W/m² 0,0 km/h (0 Bft) 97,87 %
26.03.2026 22:42 2,3 °C 1,7 °C -1,1 °C 87 % 1021,9 hPa 0,0 l/m² 0 min 0 W/m² 0,0 km/h (0 Bft) 100,00 %
26.03.2026 22:44 2,3 °C 1,7 °C -1,1 °C 87 % 1021,9 hPa 0,0 l/m² 0 min 0 W/m² 0,0 km/h (0 Bft) 100,00 %
26.03.2026 22:46 2,3 °C 1,7 °C -1,1 °C 87 % 1021,8 hPa 0,0 l/m² 0 min 0 W/m² 0,0 km/h (0 Bft) 100,00 %
26.03.2026 22:48 2,4 °C 1,7 °C -1,1 °C 88 % 1021,9 hPa 0,0 l/m² 0 min 0 W/m² 3,2 km/h (1 Bft) 98,00 %
26.03.2026 22:50 2,4 °C 1,7 °C -1,1 °C 87 % 1021,8 hPa 0,0 l/m² 0 min 0 W/m² 3,2 km/h (1 Bft) 100,00 %
26.03.2026 22:52 2,4 °C 1,7 °C -1,1 °C 88 % 1021,9 hPa 0,0 l/m² 0 min 0 W/m² 0,0 km/h (0 Bft) 98,00 %
26.03.2026 22:54 2,4 °C 1,7 °C -1,1 °C 88 % 1021,8 hPa 0,0 l/m² 0 min 0 W/m² 0,0 km/h (0 Bft) 97,87 %
26.03.2026 22:56 2,5 °C 2,2 °C -1,1 °C 88 % 1021,8 hPa 0,0 l/m² 0 min 0 W/m² 3,2 km/h (1 Bft) 95,74 %
26.03.2026 22:58 2,5 °C 1,7 °C -1,1 °C 88 % 1021,8 hPa 0,0 l/m² 0 min 0 W/m² 0,0 km/h (0 Bft) 97,87 %
26.03.2026 23:00 2,5 °C 1,7 °C -1,1 °C 88 % 1021,8 hPa 0,0 l/m² 0 min 0 W/m² 0,0 km/h (0 Bft) 97,87 %
26.03.2026 23:02 2,6 °C 1,7 °C -1,1 °C 88 % 1021,8 hPa 0,0 l/m² 0 min 0 W/m² 0,0 km/h (0 Bft) 97,87 %
26.03.2026 23:04 2,6 °C 1,7 °C -1,1 °C 88 % 1021,8 hPa 0,0 l/m² 0 min 0 W/m² 0,0 km/h (0 Bft) 95,74 %
26.03.2026 23:06 2,6 °C 1,7 °C -1,1 °C 88 % 1021,8 hPa 0,0 l/m² 0 min 0 W/m² 0,0 km/h (0 Bft) 97,87 %
26.03.2026 23:08 2,6 °C 1,7 °C -1,1 °C 88 % 1021,8 hPa 0,0 l/m² 0 min 0 W/m² 0,0 km/h (0 Bft) 100,00 %
26.03.2026 23:10 2,6 °C 1,7 °C -1,1 °C 88 % 1021,8 hPa 0,0 l/m² 0 min 0 W/m² 0,0 km/h (0 Bft) 97,87 %
26.03.2026 23:12 2,6 °C 1,7 °C -1,1 °C 88 % 1021,8 hPa 0,0 l/m² 0 min 0 W/m² 0,0 km/h (0 Bft) 97,87 %
26.03.2026 23:14 2,6 °C 1,7 °C -1,1 °C 88 % 1021,9 hPa 0,0 l/m² 0 min 0 W/m² 6,4 km/h (2 Bft) 95,74 %
26.03.2026 23:16 2,5 °C 1,7 °C -1,1 °C 88 % 1021,8 hPa 0,0 l/m² 0 min 0 W/m² 3,2 km/h (1 Bft) 98,00 %
26.03.2026 23:18 2,5 °C 1,7 °C -1,7 °C 88 % 1021,8 hPa 0,0 l/m² 0 min 0 W/m² 3,2 km/h (1 Bft) 95,74 %
26.03.2026 23:20 2,5 °C 1,7 °C -1,7 °C 88 % 1021,8 hPa 0,0 l/m² 0 min 0 W/m² 6,4 km/h (2 Bft) 97,62 %
26.03.2026 23:22 2,4 °C 1,7 °C -1,7 °C 88 % 1021,8 hPa 0,0 l/m² 0 min 0 W/m² 3,2 km/h (1 Bft) 97,87 %
26.03.2026 23:24 2,4 °C 1,7 °C -1,7 °C 88 % 1021,9 hPa 0,0 l/m² 0 min 0 W/m² 3,2 km/h (1 Bft) 97,87 %
26.03.2026 23:26 2,4 °C 1,7 °C -1,7 °C 88 % 1021,9 hPa 0,0 l/m² 0 min 0 W/m² 3,2 km/h (1 Bft) 100,00 %
26.03.2026 23:28 2,4 °C 1,7 °C -1,7 °C 88 % 1021,9 hPa 0,0 l/m² 0 min 0 W/m² 3,2 km/h (1 Bft) 100,00 %
26.03.2026 23:30 2,3 °C 1,1 °C -1,7 °C 88 % 1022,0 hPa 0,0 l/m² 0 min 0 W/m² 6,4 km/h (2 Bft) 98,00 %
26.03.2026 23:32 2,3 °C 1,1 °C -1,7 °C 88 % 1021,9 hPa 0,0 l/m² 0 min 0 W/m² 3,2 km/h (1 Bft) 97,87 %
26.03.2026 23:34 2,2 °C 1,1 °C -1,7 °C 88 % 1021,9 hPa 0,0 l/m² 0 min 0 W/m² 3,2 km/h (1 Bft) 97,87 %
26.03.2026 23:36 2,2 °C 1,1 °C -1,7 °C 88 % 1021,9 hPa 0,0 l/m² 0 min 0 W/m² 6,4 km/h (2 Bft) 97,83 %
26.03.2026 23:38 2,2 °C 1,1 °C -1,7 °C 88 % 1021,9 hPa 0,0 l/m² 0 min 0 W/m² 6,4 km/h (2 Bft) 93,62 %
26.03.2026 23:40 2,1 °C 1,1 °C -1,7 °C 88 % 1021,9 hPa 0,0 l/m² 0 min 0 W/m² 3,2 km/h (1 Bft) 95,74 %
26.03.2026 23:42 2,1 °C 1,1 °C -1,7 °C 88 % 1021,9 hPa 0,0 l/m² 0 min 0 W/m² 3,2 km/h (1 Bft) 97,87 %
26.03.2026 23:44 2,1 °C 1,1 °C -1,7 °C 88 % 1021,9 hPa 0,0 l/m² 0 min 0 W/m² 3,2 km/h (1 Bft) 94,00 %
26.03.2026 23:46 2,0 °C 1,1 °C -1,7 °C 88 % 1021,9 hPa 0,0 l/m² 0 min 0 W/m² 0,0 km/h (0 Bft) 48,78 %
26.03.2026 23:48 2,0 °C 1,1 °C -2,2 °C 88 % 1021,9 hPa 0,0 l/m² 0 min 0 W/m² 3,2 km/h (1 Bft) 95,00 %
26.03.2026 23:50 1,9 °C 1,1 °C -2,2 °C 88 % 1021,9 hPa 0,0 l/m² 0 min 0 W/m² 3,2 km/h (1 Bft) 95,74 %
26.03.2026 23:52 1,9 °C 1,1 °C -2,2 °C 88 % 1021,9 hPa 0,0 l/m² 0 min 0 W/m² 3,2 km/h (1 Bft) 93,62 %
26.03.2026 23:54 1,9 °C 1,1 °C -2,2 °C 88 % 1021,9 hPa 0,0 l/m² 0 min 0 W/m² 3,2 km/h (1 Bft) 98,00 %
26.03.2026 23:56 1,8 °C 1,1 °C -2,2 °C 88 % 1022,0 hPa 0,0 l/m² 0 min 0 W/m² 9,7 km/h (2 Bft) 97,87 %
26.03.2026 23:58 1,8 °C 1,1 °C -2,2 °C 88 % 1022,0 hPa 0,0 l/m² 0 min 0 W/m² 3,2 km/h (1 Bft) 97,62 %
_ Min-Zeit 06:40 21:56 21:44 13:06 00:00 - - - 21:30 23:46
Minimum _ 1,8 °C 0,6 °C -2,2 °C 60 % 1010,0 hPa - - - 0,0 km/h (0 Bft) 48,78 %
_ Max-Zeit 13:02 12:30 12:02 05:50 23:30 00:00 08:55 12:38 14:36 00:00
Maximum _ 9,9 °C 20,0 °C 8,9 °C 94 % 1022,0 hPa 0,0 l/m² 5 min 912 W/m² 70,8 km/h
N (8 Bft)
100,00 %
Durchschnitt _ 4,6 °C 5,7 °C 1,1 °C 82 % 1016,5 hPa #0,0 l/m² #6:28 h 295 W/m² 15,6 km/h (3 Bft) 97,94 %
© 2026 W. Hausmann